Time,TemperatureF,DewpointF,PressureIn,WindDirection,WindDirectionDegrees,WindSpeedMPH,WindSpeedGustMPH,Humidity,HourlyPrecipIn,Conditions,Clouds,dailyrainin,SolarRadiationWatts/m^2,SoftwareType,DateUTC
2014-08-22 00:00:00,70.2,69.3,29.94,West,267,1.0,1.0,97,0.00,,---,0.10,0.00,VWS V14.01,2014-08-22 04:00:00,
2014-08-22 00:01:00,70.2,69.3,29.94,West,267,1.0,4.0,97,0.00,,---,0.00,0.00,VWS V14.01,2014-08-22 04:01:00,
2014-08-22 00:02:00,70.2,69.3,29.94,West,267,0.0,1.0,97,0.00,,---,0.00,0.00,VWS V14.01,2014-08-22 04:02:00,
2014-08-22 00:03:00,70.2,69.3,29.94,West,267,0.0,2.0,97,0.00,,---,0.00,0.00,VWS V14.01,2014-08-22 04:03:00,
2014-08-22 00:04:00,70.2,69.3,29.94,West,267,0.0,1.0,97,0.00,,---,0.00,0.00,VWS V14.01,2014-08-22 04:04:00,
2014-08-22 00:05:00,70.2,69.3,29.94,West,267,0.0,2.0,97,0.00,,---,0.00,0.00,VWS V14.01,2014-08-22 04:05:00,
2014-08-22 00:06:00,70.2,69.3,29.94,West,267,1.0,1.0,97,0.00,,---,0.00,0.00,VWS V14.01,2014-08-22 04:06:00,
2014-08-22 00:07:00,70.2,69.3,29.94,West,267,0.0,2.0,97,0.00,,---,0.00,0.00,VWS V14.01,2014-08-22 04:07:00,
2014-08-22 00:08:00,70.2,69.3,29.94,West,267,0.0,4.0,97,0.00,,---,0.00,0.00,VWS V14.01,2014-08-22 04:08:00,
2014-08-22 00:09:00,70.1,69.2,29.94,West,267,0.0,0.0,97,0.00,,---,0.00,0.00,VWS V14.01,2014-08-22 04:09:00,
2014-08-22 00:10:00,70.1,69.2,29.94,West,267,0.0,1.0,97,0.00,,---,0.00,0.00,VWS V14.01,2014-08-22 04:10:00,
2014-08-22 00:11:00,70.1,69.2,29.94,West,267,0.0,0.0,97,0.00,,---,0.00,0.00,VWS V14.01,2014-08-22 04:11:00,
2014-08-22 00:12:00,70.1,69.2,29.94,West,267,0.0,1.0,97,0.00,,---,0.00,0.00,VWS V14.01,2014-08-22 04:12:00,
2014-08-22 00:13:00,70.2,69.3,29.94,West,267,0.0,1.0,97,0.00,,---,0.10,0.00,VWS V14.01,2014-08-22 04:13:00,
2014-08-22 00:14:00,70.1,69.2,29.94,West,267,2.0,2.0,97,0.00,,---,0.00,0.00,VWS V14.01,2014-08-22 04:14:00,
2014-08-22 00:15:00,70.1,69.2,29.95,West,267,0.0,4.0,97,0.00,,---,0.00,0.00,VWS V14.01,2014-08-22 04:15:00,
2014-08-22 00:16:00,70.1,69.2,29.95,West,267,2.0,6.0,97,0.00,,---,0.00,0.00,VWS V14.01,2014-08-22 04:16:00,
2014-08-22 00:17:00,70.1,69.2,29.94,West,267,0.0,2.0,97,0.00,,---,0.00,0.00,VWS V14.01,2014-08-22 04:17:00,
2014-08-22 00:18:00,70.0,69.1,29.94,West,267,0.0,1.0,97,0.00,,---,0.00,0.00,VWS V14.01,2014-08-22 04:18:00,
2014-08-22 00:19:00,70.0,69.1,29.94,West,267,1.0,4.0,97,0.00,,---,0.00,0.00,VWS V14.01,2014-08-22 04:19:00,
2014-08-22 00:20:00,70.0,69.1,29.94,West,267,2.0,2.0,97,0.00,,---,0.00,0.00,VWS V14.01,2014-08-22 04:20:00,
2014-08-22 00:21:00,70.0,69.1,29.94,West,267,0.0,4.0,97,0.00,,---,0.00,0.00,VWS V14.01,2014-08-22 04:21:00,
2014-08-22 00:22:00,70.0,69.1,29.94,West,267,2.0,2.0,97,0.00,,---,0.00,0.00,VWS V14.01,2014-08-22 04:22:00,
2014-08-22 00:23:00,70.0,69.1,29.94,West,267,0.0,1.0,97,0.00,,---,0.00,0.00,VWS V14.01,2014-08-22 04:23:00,
2014-08-22 00:24:00,70.0,69.1,29.94,West,267,0.0,1.0,97,0.00,,---,0.00,0.00,VWS V14.01,2014-08-22 04:24:00,
2014-08-22 00:25:00,70.0,69.1,29.94,West,267,0.0,0.0,97,0.00,,---,0.00,0.00,VWS V14.01,2014-08-22 04:25:00,
2014-08-22 00:26:00,70.0,69.1,29.95,West,267,0.0,5.0,97,0.00,,---,0.00,0.00,VWS V14.01,2014-08-22 04:26:00,
2014-08-22 00:27:00,69.9,69.0,29.95,West,267,0.0,1.0,97,0.00,,---,0.00,0.00,VWS V14.01,2014-08-22 04:27:00,
2014-08-22 00:28:00,70.0,69.1,29.95,West,267,0.0,1.0,97,0.00,,---,0.00,0.00,VWS V14.01,2014-08-22 04:28:00,
2014-08-22 00:29:00,69.9,69.0,29.95,West,267,0.0,4.0,97,0.00,,---,0.00,0.00,VWS V14.01,2014-08-22 04:29:00,
2014-08-22 00:30:00,70.0,69.1,29.95,West,267,0.0,0.0,97,0.00,,---,0.00,0.00,VWS V14.01,2014-08-22 04:30:00,
2014-08-22 00:31:00,70.0,69.1,29.95,West,267,2.0,2.0,97,0.00,,---,0.00,0.00,VWS V14.01,2014-08-22 04:31:00,
2014-08-22 00:32:00,70.0,69.1,29.95,West,267,0.0,3.0,97,0.00,,---,0.00,0.00,VWS V14.01,2014-08-22 04:32:00,
2014-08-22 00:33:00,70.0,69.1,29.95,West,267,1.0,2.0,97,0.00,,---,0.00,0.00,VWS V14.01,2014-08-22 04:33:00,
2014-08-22 00:34:00,70.0,69.1,29.95,West,267,0.0,1.0,97,0.00,,---,0.00,0.00,VWS V14.01,2014-08-22 04:34:00,
2014-08-22 00:35:00,70.0,69.1,29.95,West,267,0.0,1.0,97,0.00,,---,0.00,0.00,VWS V14.01,2014-08-22 04:35:00,
2014-08-22 00:36:00,70.0,69.1,29.95,West,267,0.0,0.0,97,0.00,,---,0.00,0.00,VWS V14.01,2014-08-22 04:36:00,
2014-08-22 00:37:00,70.0,69.1,29.95,West,267,0.0,0.0,97,0.00,,---,0.00,0.00,VWS V14.01,2014-08-22 04:37:00,
2014-08-22 00:38:00,70.0,69.1,29.95,West,267,0.0,0.0,97,0.00,,---,0.00,0.00,VWS V14.01,2014-08-22 04:38:00,
2014-08-22 00:39:00,70.0,69.1,29.95,West,267,0.0,0.0,97,0.00,,---,0.00,0.00,VWS V14.01,2014-08-22 04:39:00,
2014-08-22 00:40:00,70.0,69.1,29.95,West,267,0.0,0.0,97,0.00,,---,0.00,0.00,VWS V14.01,2014-08-22 04:40:00,
2014-08-22 00:41:00,70.0,69.1,29.95,West,267,0.0,0.0,97,0.00,,---,0.00,0.00,VWS V14.01,2014-08-22 04:41:00,
2014-08-22 00:42:00,70.0,69.1,29.95,West,267,0.0,1.0,97,0.00,,---,0.00,0.00,VWS V14.01,2014-08-22 04:42:00,
2014-08-22 00:43:00,70.0,69.1,29.94,West,267,0.0,4.0,97,0.00,,---,0.00,0.00,VWS V14.01,2014-08-22 04:43:00,
2014-08-22 00:44:00,70.0,69.1,29.94,West,267,0.0,1.0,97,0.00,,---,0.00,0.00,VWS V14.01,2014-08-22 04:44:00,
2014-08-22 00:45:00,70.0,69.1,29.94,West,267,1.0,1.0,97,0.00,,---,0.00,0.00,VWS V14.01,2014-08-22 04:45:00,
2014-08-22 00:46:00,70.0,69.1,29.94,West,267,0.0,0.0,97,0.00,,---,0.00,0.00,VWS V14.01,2014-08-22 04:46:00,
2014-08-22 00:47:00,70.0,69.1,29.95,West,267,0.0,1.0,97,0.00,,---,0.00,0.00,VWS V14.01,2014-08-22 04:47:00,
2014-08-22 00:48:00,70.0,69.1,29.95,West,267,0.0,0.0,97,0.00,,---,0.00,0.00,VWS V14.01,2014-08-22 04:48:00,
2014-08-22 00:49:00,69.9,69.0,29.95,West,267,0.0,1.0,97,0.00,,---,0.00,0.00,VWS V14.01,2014-08-22 04:49:00,
2014-08-22 00:50:00,69.9,69.0,29.95,West,267,0.0,1.0,97,0.00,,---,0.00,0.00,VWS V14.01,2014-08-22 04:50:00,
2014-08-22 00:51:00,69.9,69.0,29.94,West,267,0.0,1.0,97,0.00,,---,0.00,0.00,VWS V14.01,2014-08-22 04:51:00,
2014-08-22 00:52:00,69.9,69.0,29.94,West,267,0.0,1.0,97,0.00,,---,0.00,0.00,VWS V14.01,2014-08-22 04:52:00,
2014-08-22 00:53:00,69.9,69.0,29.94,West,267,0.0,0.0,97,0.00,,---,0.00,0.00,VWS V14.01,2014-08-22 04:53:00,
2014-08-22 00:54:00,69.9,69.0,29.94,West,267,0.0,0.0,97,0.00,,---,0.00,0.00,VWS V14.01,2014-08-22 04:54:00,
2014-08-22 00:55:00,69.9,69.0,29.94,West,267,0.0,0.0,97,0.00,,---,0.00,0.00,VWS V14.01,2014-08-22 04:55:00,
2014-08-22 00:56:00,69.9,69.0,29.94,West,267,0.0,1.0,97,0.00,,---,0.00,0.00,VWS V14.01,2014-08-22 04:56:00,
2014-08-22 00:57:00,69.8,68.9,29.94,West,267,0.0,1.0,97,0.00,,---,0.00,0.00,VWS V14.01,2014-08-22 04:57:00,
2014-08-22 00:58:00,69.8,68.9,29.94,West,267,0.0,1.0,97,0.00,,---,0.00,0.00,VWS V14.01,2014-08-22 04:58:00,
2014-08-22 00:59:00,69.8,68.9,29.93,West,267,0.0,0.0,97,0.00,,---,0.00,0.00,VWS V14.01,2014-08-22 04:59:00,
2014-08-22 01:00:00,69.8,68.9,29.94,West,267,0.0,0.0,97,0.00,,---,0.00,0.00,VWS V14.01,2014-08-22 05:00:00,
2014-08-22 01:01:00,69.8,68.9,29.93,West,267,0.0,1.0,97,0.00,,---,0.00,0.00,VWS V14.01,2014-08-22 05:01:00,
2014-08-22 01:02:00,69.8,68.9,29.93,West,267,0.0,1.0,97,0.00,,---,0.00,0.00,VWS V14.01,2014-08-22 05:02:00,
2014-08-22 01:03:00,69.8,68.9,29.93,West,267,0.0,1.0,97,0.00,,---,0.00,0.00,VWS V14.01,2014-08-22 05:03:00,
2014-08-22 01:04:00,69.7,68.8,29.93,West,267,1.0,3.0,97,0.00,,---,0.00,0.00,VWS V14.01,2014-08-22 05:04:00,
2014-08-22 01:05:00,69.7,68.8,29.93,West,267,0.0,4.0,97,0.00,,---,0.00,0.00,VWS V14.01,2014-08-22 05:05:00,
2014-08-22 01:06:00,69.7,68.8,29.93,West,267,0.0,1.0,97,0.00,,---,0.00,0.00,VWS V14.01,2014-08-22 05:06:00,
2014-08-22 01:07:00,69.7,68.8,29.93,West,267,0.0,5.0,97,0.00,,---,0.00,0.00,VWS V14.01,2014-08-22 05:07:00,
2014-08-22 01:08:00,69.7,68.8,29.93,West,267,0.0,5.0,97,0.00,,---,0.00,0.00,VWS V14.01,2014-08-22 05:08:00,
2014-08-22 01:09:00,69.7,68.8,29.93,West,267,1.0,5.0,97,0.00,,---,0.00,0.00,VWS V14.01,2014-08-22 05:09:00,
2014-08-22 01:10:00,69.7,68.8,29.93,West,267,3.0,3.0,97,0.00,,---,0.00,0.00,VWS V14.01,2014-08-22 05:10:00,
2014-08-22 01:11:00,69.7,68.8,29.92,West,267,0.0,4.0,97,0.00,,---,0.00,0.00,VWS V14.01,2014-08-22 05:11:00,
2014-08-22 01:12:00,69.7,68.8,29.92,West,267,0.0,1.0,97,0.00,,---,0.00,0.00,VWS V14.01,2014-08-22 05:12:00,
2014-08-22 01:13:00,69.7,68.8,29.92,West,267,0.0,2.0,97,0.00,,---,0.00,0.00,VWS V14.01,2014-08-22 05:13:00,
2014-08-22 01:14:00,69.7,68.8,29.92,West,267,0.0,1.0,97,0.00,,---,0.00,0.00,VWS V14.01,2014-08-22 05:14:00,
2014-08-22 01:15:00,69.7,68.8,29.93,West,267,0.0,0.0,97,0.00,,---,0.00,0.00,VWS V14.01,2014-08-22 05:15:00,
2014-08-22 01:16:00,69.7,68.8,29.92,West,267,0.0,6.0,97,0.00,,---,0.00,0.00,VWS V14.01,2014-08-22 05:16:00,
2014-08-22 01:17:00,69.7,68.8,29.92,West,267,5.0,6.0,97,0.00,,---,0.00,0.00,VWS V14.01,2014-08-22 05:17:00,
2014-08-22 01:18:00,69.7,68.8,29.92,West,267,4.0,5.0,97,0.00,,---,0.00,0.00,VWS V14.01,2014-08-22 05:18:00,
2014-08-22 01:19:00,69.6,68.7,29.92,West,267,0.0,2.0,97,0.00,,---,0.00,0.00,VWS V14.01,2014-08-22 05:19:00,
2014-08-22 01:20:00,69.6,68.7,29.92,West,267,0.0,3.0,97,0.00,,---,0.00,0.00,VWS V14.01,2014-08-22 05:20:00,
2014-08-22 01:21:00,69.6,68.7,29.92,West,267,0.0,1.0,97,0.00,,---,0.00,0.00,VWS V14.01,2014-08-22 05:21:00,
2014-08-22 01:22:00,69.6,68.7,29.92,West,266,0.0,3.0,97,0.00,,---,0.00,0.00,VWS V14.01,2014-08-22 05:22:00,
2014-08-22 01:23:00,69.6,68.7,29.93,West,266,0.0,0.0,97,0.00,,---,0.00,0.00,VWS V14.01,2014-08-22 05:23:00,
2014-08-22 01:24:00,69.6,68.7,29.93,West,266,0.0,1.0,97,0.00,,---,0.00,0.00,VWS V14.01,2014-08-22 05:24:00,
2014-08-22 01:25:00,69.6,68.7,29.93,West,266,0.0,6.0,97,0.00,,---,0.00,0.00,VWS V14.01,2014-08-22 05:25:00,
2014-08-22 01:26:00,69.6,68.7,29.94,West,266,0.0,0.0,97,0.00,,---,0.00,0.00,VWS V14.01,2014-08-22 05:26:00,
2014-08-22 01:27:00,69.7,68.8,29.94,West,266,0.0,1.0,97,0.00,,---,0.00,0.00,VWS V14.01,2014-08-22 05:27:00,
2014-08-22 01:28:00,69.7,68.8,29.95,West,266,0.0,0.0,97,0.00,,---,0.00,0.00,VWS V14.01,2014-08-22 05:28:00,
2014-08-22 01:29:00,69.7,68.8,29.95,West,266,0.0,2.0,97,0.00,,---,0.00,0.00,VWS V14.01,2014-08-22 05:29:00,
2014-08-22 01:30:00,69.7,68.8,29.95,West,266,0.0,0.0,97,0.00,,---,0.00,0.00,VWS V14.01,2014-08-22 05:30:00,
2014-08-22 01:31:00,69.7,68.8,29.95,West,266,0.0,1.0,97,0.00,,---,0.00,0.00,VWS V14.01,2014-08-22 05:31:00,
2014-08-22 01:32:00,69.7,68.8,29.94,West,265,6.0,6.0,97,0.00,,---,0.00,0.00,VWS V14.01,2014-08-22 05:32:00,
2014-08-22 01:33:00,69.7,68.8,29.93,West,261,4.0,6.0,97,0.00,,---,0.00,0.00,VWS V14.01,2014-08-22 05:33:00,
2014-08-22 01:34:00,69.7,68.8,29.93,WSW,255,4.0,8.0,97,0.00,,---,0.00,0.00,VWS V14.01,2014-08-22 05:34:00,
2014-08-22 01:35:00,69.7,68.8,29.92,SW,236,2.0,8.0,97,0.00,,---,0.00,0.00,VWS V14.01,2014-08-22 05:35:00,
2014-08-22 01:36:00,69.8,68.9,29.93,SSW,213,5.0,10.0,97,0.00,,---,0.00,0.00,VWS V14.01,2014-08-22 05:36:00,
2014-08-22 01:37:00,69.8,68.9,29.92,SW,214,2.0,7.0,97,0.00,,---,0.00,0.00,VWS V14.01,2014-08-22 05:37:00,
2014-08-22 01:38:00,69.8,68.9,29.91,SW,217,1.0,8.0,97,0.00,,---,0.00,0.00,VWS V14.01,2014-08-22 05:38:00,
2014-08-22 01:39:00,69.8,68.9,29.91,South,188,8.0,9.0,97,0.00,,---,0.00,0.00,VWS V14.01,2014-08-22 05:39:00,
2014-08-22 01:40:00,69.8,68.9,29.91,South,173,0.0,8.0,97,0.00,,---,0.00,0.00,VWS V14.01,2014-08-22 05:40:00,
2014-08-22 01:41:00,69.9,69.0,29.90,WSW,250,11.0,11.0,97,0.00,,---,0.00,0.00,VWS V14.01,2014-08-22 05:41:00,
2014-08-22 01:42:00,70.1,69.2,29.90,West,259,9.0,11.0,97,0.00,,---,0.00,0.00,VWS V14.01,2014-08-22 05:42:00,
2014-08-22 01:43:00,70.2,69.3,29.90,West,267,4.0,11.0,97,0.00,,---,0.00,0.00,VWS V14.01,2014-08-22 05:43:00,
2014-08-22 01:44:00,70.4,69.5,29.90,West,277,4.0,10.0,97,0.00,,---,0.00,0.00,VWS V14.01,2014-08-22 05:44:00,
2014-08-22 01:45:00,70.4,69.8,29.90,West,260,12.0,16.0,98,0.00,,---,0.00,0.00,VWS V14.01,2014-08-22 05:45:00,
2014-08-22 01:46:00,70.4,69.8,29.90,SW,214,1.0,16.0,98,0.00,,---,0.00,0.00,VWS V14.01,2014-08-22 05:46:00,
2014-08-22 01:47:00,70.4,69.8,29.90,SW,214,0.0,11.0,98,0.00,,---,0.00,0.00,VWS V14.01,2014-08-22 05:47:00,
2014-08-22 01:48:00,70.4,69.5,29.90,SSW,211,6.0,13.0,97,0.00,,---,0.00,0.00,VWS V14.01,2014-08-22 05:48:00,
2014-08-22 01:49:00,70.4,69.5,29.90,SW,233,5.0,7.0,97,0.00,,---,0.00,0.00,VWS V14.01,2014-08-22 05:49:00,
2014-08-22 01:50:00,70.4,69.5,29.90,SW,231,0.0,6.0,97,0.00,,---,0.00,0.00,VWS V14.01,2014-08-22 05:50:00,
2014-08-22 01:51:00,70.4,69.5,29.90,SSW,213,1.0,10.0,97,0.00,,---,0.00,0.00,VWS V14.01,2014-08-22 05:51:00,
2014-08-22 01:52:00,70.4,69.5,29.90,SSW,212,0.0,6.0,97,0.00,,---,0.00,0.00,VWS V14.01,2014-08-22 05:52:00,
2014-08-22 01:53:00,70.4,69.5,29.90,SW,215,3.0,3.0,97,0.00,,---,0.00,0.00,VWS V14.01,2014-08-22 05:53:00,
2014-08-22 01:54:00,70.4,69.5,29.90,SW,215,0.0,5.0,97,0.00,,---,0.00,0.00,VWS V14.01,2014-08-22 05:54:00,
2014-08-22 01:55:00,70.4,69.5,29.91,SSW,211,3.0,4.0,97,0.00,,---,0.00,0.00,VWS V14.01,2014-08-22 05:55:00,
2014-08-22 01:56:00,70.5,69.6,29.91,SSW,211,0.0,3.0,97,0.00,,---,0.00,0.00,VWS V14.01,2014-08-22 05:56:00,
2014-08-22 01:57:00,70.5,69.6,29.91,SSW,211,0.0,1.0,97,0.00,,---,0.00,0.00,VWS V14.01,2014-08-22 05:57:00,
2014-08-22 01:58:00,70.5,69.6,29.90,SSW,211,0.0,0.0,97,0.00,,---,0.00,0.00,VWS V14.01,2014-08-22 05:58:00,
2014-08-22 01:59:00,70.5,69.6,29.89,SSW,211,0.0,4.0,97,0.00,,---,0.00,0.00,VWS V14.01,2014-08-22 05:59:00,
2014-08-22 02:00:00,70.6,70.0,29.89,SSW,213,2.0,9.0,98,0.00,,---,0.00,0.00,VWS V14.01,2014-08-22 06:00:00,
2014-08-22 02:01:00,70.8,69.9,29.89,SW,236,9.0,9.0,97,0.00,,---,0.00,0.00,VWS V14.01,2014-08-22 06:01:00,
2014-08-22 02:02:00,70.9,70.0,29.89,SW,224,1.0,9.0,97,0.00,,---,0.00,0.00,VWS V14.01,2014-08-22 06:02:00,
2014-08-22 02:03:00,71.0,70.4,29.89,WSW,245,6.0,12.0,98,0.00,,---,0.00,0.00,VWS V14.01,2014-08-22 06:03:00,
2014-08-22 02:04:00,71.0,70.4,29.89,WSW,257,6.0,7.0,98,0.00,,---,0.00,0.00,VWS V14.01,2014-08-22 06:04:00,
2014-08-22 02:05:00,71.1,70.5,29.89,WSW,252,1.0,6.0,98,0.00,,---,0.00,0.00,VWS V14.01,2014-08-22 06:05:00,
2014-08-22 02:06:00,71.1,70.5,29.89,WSW,252,2.0,2.0,98,0.00,,---,0.00,0.00,VWS V14.01,2014-08-22 06:06:00,
2014-08-22 02:07:00,71.2,70.6,29.89,WSW,252,0.0,2.0,98,0.00,,---,0.00,0.00,VWS V14.01,2014-08-22 06:07:00,
2014-08-22 02:08:00,71.2,70.6,29.89,WSW,252,0.0,1.0,98,0.00,,---,0.00,0.00,VWS V14.01,2014-08-22 06:08:00,
2014-08-22 02:09:00,71.2,70.6,29.90,WSW,252,0.0,1.0,98,0.00,,---,0.00,0.00,VWS V14.01,2014-08-22 06:09:00,
2014-08-22 02:10:00,71.2,70.6,29.90,WSW,252,0.0,1.0,98,0.00,,---,0.00,0.00,VWS V14.01,2014-08-22 06:10:00,
2014-08-22 02:11:00,71.2,70.6,29.90,WSW,252,0.0,1.0,98,0.00,,---,0.00,0.00,VWS V14.01,2014-08-22 06:11:00,
2014-08-22 02:12:00,71.2,70.6,29.90,WSW,252,0.0,1.0,98,0.00,,---,0.00,0.00,VWS V14.01,2014-08-22 06:12:00,
2014-08-22 02:13:00,71.2,70.6,29.90,WNW,297,5.0,5.0,98,0.00,,---,0.00,0.00,VWS V14.01,2014-08-22 06:13:00,
2014-08-22 02:14:00,71.2,70.6,29.91,North,9,5.0,7.0,98,0.00,,---,0.00,0.00,VWS V14.01,2014-08-22 06:14:00,
2014-08-22 02:15:00,71.2,70.6,29.91,North,10,3.0,5.0,98,0.00,,---,0.00,0.00,VWS V14.01,2014-08-22 06:15:00,
2014-08-22 02:16:00,71.2,70.6,29.91,North,10,0.0,5.0,98,0.00,,---,0.00,0.00,VWS V14.01,2014-08-22 06:16:00,
2014-08-22 02:17:00,71.2,70.6,29.91,North,10,0.0,1.0,98,0.00,,---,0.00,0.00,VWS V14.01,2014-08-22 06:17:00,
2014-08-22 02:18:00,71.2,70.3,29.90,North,10,0.0,0.0,97,0.00,,---,0.00,0.00,VWS V14.01,2014-08-22 06:18:00,
2014-08-22 02:19:00,71.2,70.3,29.90,North,10,1.0,1.0,97,0.00,,---,0.00,0.00,VWS V14.01,2014-08-22 06:19:00,
2014-08-22 02:20:00,71.2,70.3,29.89,North,10,0.0,0.0,97,0.00,,---,0.00,0.00,VWS V14.01,2014-08-22 06:20:00,
2014-08-22 02:21:00,71.2,70.3,29.89,NNW,339,2.0,6.0,97,0.00,,---,0.00,0.00,VWS V14.01,2014-08-22 06:21:00,
2014-08-22 02:22:00,71.2,70.3,29.89,NNW,332,4.0,6.0,97,0.00,,---,0.00,0.00,VWS V14.01,2014-08-22 06:22:00,
2014-08-22 02:23:00,71.2,70.3,29.88,NNW,332,0.0,5.0,97,0.00,,---,0.00,0.00,VWS V14.01,2014-08-22 06:23:00,
2014-08-22 02:24:00,71.2,70.3,29.88,West,281,5.0,8.0,97,0.00,,---,0.00,0.00,VWS V14.01,2014-08-22 06:24:00,
2014-08-22 02:25:00,71.2,70.3,29.89,WNW,284,5.0,6.0,97,0.00,,---,0.00,0.00,VWS V14.01,2014-08-22 06:25:00,
2014-08-22 02:26:00,71.3,70.7,29.89,WNW,286,4.0,6.0,98,0.00,,---,0.00,0.00,VWS V14.01,2014-08-22 06:26:00,
2014-08-22 02:27:00,71.3,70.7,29.90,WNW,286,0.0,4.0,98,0.00,,---,0.00,0.00,VWS V14.01,2014-08-22 06:27:00,
2014-08-22 02:28:00,71.3,70.7,29.90,WNW,286,2.0,2.0,98,0.00,,---,0.00,0.00,VWS V14.01,2014-08-22 06:28:00,
2014-08-22 02:29:00,71.3,70.7,29.90,WNW,286,0.0,2.0,98,0.00,,---,0.00,0.00,VWS V14.01,2014-08-22 06:29:00,
2014-08-22 02:30:00,71.4,70.8,29.90,WNW,286,0.0,1.0,98,0.00,,---,0.00,0.00,VWS V14.01,2014-08-22 06:30:00,
2014-08-22 02:31:00,71.4,70.5,29.90,WNW,286,0.0,4.0,97,0.00,,---,0.00,0.00,VWS V14.01,2014-08-22 06:31:00,
2014-08-22 02:32:00,71.4,70.5,29.90,WNW,286,0.0,0.0,97,0.00,,---,0.00,0.00,VWS V14.01,2014-08-22 06:32:00,
2014-08-22 02:33:00,71.4,70.5,29.90,WNW,286,0.0,1.0,97,0.00,,---,0.00,0.00,VWS V14.01,2014-08-22 06:33:00,
2014-08-22 02:34:00,71.5,70.6,29.90,WNW,286,1.0,1.0,97,0.00,,---,0.00,0.00,VWS V14.01,2014-08-22 06:34:00,
2014-08-22 02:35:00,71.5,70.6,29.90,WNW,286,0.0,1.0,97,0.00,,---,0.00,0.00,VWS V14.01,2014-08-22 06:35:00,
2014-08-22 02:36:00,71.5,70.6,29.90,WNW,286,1.0,1.0,97,0.00,,---,0.00,0.00,VWS V14.01,2014-08-22 06:36:00,
2014-08-22 02:37:00,71.5,70.6,29.91,WNW,286,1.0,2.0,97,0.00,,---,0.00,0.00,VWS V14.01,2014-08-22 06:37:00,
2014-08-22 02:38:00,71.5,70.6,29.91,SE,146,1.0,8.0,97,0.00,,---,0.00,0.00,VWS V14.01,2014-08-22 06:38:00,
2014-08-22 02:39:00,71.5,70.6,29.90,SE,146,0.0,1.0,97,0.00,,---,0.00,0.00,VWS V14.01,2014-08-22 06:39:00,
2014-08-22 06:09:00,71.5,70.6,29.90,SE,146,1.0,1.0,97,0.00,,---,0.00,0.00,VWS V14.01,2014-08-22 10:09:00,
2014-08-22 06:10:00,69.6,68.7,29.92,SE,140,1.0,1.0,97,0.00,,---,0.00,0.00,VWS V14.01,2014-08-22 10:10:00,
2014-08-22 06:11:00,69.6,68.7,29.92,SE,140,1.0,1.0,97,0.00,,---,0.00,0.00,VWS V14.01,2014-08-22 10:11:00,
2014-08-22 06:12:00,69.6,68.7,29.92,SSE,156,0.0,4.0,97,0.00,,---,0.00,0.00,VWS V14.01,2014-08-22 10:12:00,
2014-08-22 06:13:00,69.6,68.7,29.92,SSE,157,1.0,1.0,97,0.00,,---,0.00,0.00,VWS V14.01,2014-08-22 10:13:00,
2014-08-22 06:14:00,69.6,68.7,29.92,SSE,157,0.0,3.0,97,0.00,,---,0.00,0.00,VWS V14.01,2014-08-22 10:14:00,
2014-08-22 06:15:00,69.6,68.7,29.91,SSE,157,0.0,0.0,97,0.00,,---,0.00,0.00,VWS V14.01,2014-08-22 10:15:00,
2014-08-22 06:16:00,69.6,68.7,29.92,SSE,153,0.0,6.0,97,0.00,,---,0.00,0.00,VWS V14.01,2014-08-22 10:16:00,
2014-08-22 06:17:00,69.6,68.7,29.91,SSE,153,0.0,1.0,97,0.00,,---,0.00,0.00,VWS V14.01,2014-08-22 10:17:00,
2014-08-22 06:18:00,69.7,68.8,29.92,SSE,152,0.0,1.0,97,0.00,,---,0.00,0.00,VWS V14.01,2014-08-22 10:18:00,
2014-08-22 06:19:00,69.6,68.7,29.92,SSE,151,1.0,3.0,97,0.00,,---,0.00,0.00,VWS V14.01,2014-08-22 10:19:00,
2014-08-22 06:20:00,69.6,68.7,29.92,SSE,151,0.0,0.0,97,0.00,,---,0.00,0.00,VWS V14.01,2014-08-22 10:20:00,
2014-08-22 06:21:00,69.7,68.8,29.92,SSE,151,1.0,1.0,97,0.00,,---,0.00,0.00,VWS V14.01,2014-08-22 10:21:00,
2014-08-22 06:22:00,69.6,68.7,29.92,SSE,151,0.0,2.0,97,0.00,,---,0.00,0.00,VWS V14.01,2014-08-22 10:22:00,
2014-08-22 06:23:00,69.7,68.8,29.92,SSE,151,1.0,1.0,97,0.00,,---,0.00,0.00,VWS V14.01,2014-08-22 10:23:00,
2014-08-22 06:24:00,69.7,68.8,29.92,SSE,151,1.0,5.0,97,0.00,,---,0.00,0.00,VWS V14.01,2014-08-22 10:24:00,
2014-08-22 06:25:00,69.7,68.8,29.92,SSE,151,0.0,2.0,97,0.00,,---,0.00,0.00,VWS V14.01,2014-08-22 10:25:00,
2014-08-22 06:26:00,69.6,68.7,29.92,SE,146,2.0,6.0,97,0.00,,---,0.00,0.00,VWS V14.01,2014-08-22 10:26:00,
2014-08-22 06:27:00,69.6,68.7,29.92,SSE,157,0.0,4.0,97,0.00,,---,0.00,0.00,VWS V14.01,2014-08-22 10:27:00,
2014-08-22 06:28:00,69.6,68.7,29.91,SE,144,0.0,3.0,97,0.00,,---,0.00,0.00,VWS V14.01,2014-08-22 10:28:00,
2014-08-22 06:29:00,69.6,68.7,29.91,SE,146,0.0,2.0,97,0.00,,---,0.00,0.00,VWS V14.01,2014-08-22 10:29:00,
2014-08-22 06:30:00,69.6,68.7,29.91,SE,146,0.0,1.0,97,0.00,,---,0.00,0.00,VWS V14.01,2014-08-22 10:30:00,
2014-08-22 06:31:00,69.6,68.7,29.91,SE,146,0.0,0.0,97,0.00,,---,0.00,0.00,VWS V14.01,2014-08-22 10:31:00,
2014-08-22 06:32:00,69.6,68.7,29.92,SE,146,0.0,0.0,97,0.00,,---,0.00,0.00,VWS V14.01,2014-08-22 10:32:00,
2014-08-22 06:33:00,69.6,68.7,29.92,SE,146,0.0,0.0,97,0.00,,---,0.00,0.00,VWS V14.01,2014-08-22 10:33:00,
2014-08-22 06:34:00,69.7,68.8,29.92,SE,146,0.0,0.0,97,0.00,,---,0.00,0.00,VWS V14.01,2014-08-22 10:34:00,
2014-08-22 06:35:00,69.7,68.8,29.92,SSE,151,1.0,2.0,97,0.00,,---,0.00,0.00,VWS V14.01,2014-08-22 10:35:00,
2014-08-22 06:36:00,69.7,68.8,29.93,SE,146,0.0,0.0,97,0.00,,---,0.00,0.00,VWS V14.01,2014-08-22 10:36:00,
2014-08-22 06:37:00,69.7,68.8,29.93,SE,146,1.0,1.0,97,0.00,,---,0.00,0.00,VWS V14.01,2014-08-22 10:37:00,
2014-08-22 06:38:00,69.7,68.8,29.93,SE,146,0.0,0.0,97,0.00,,---,0.00,0.00,VWS V14.01,2014-08-22 10:38:00,
2014-08-22 06:39:00,69.7,68.8,29.93,SE,146,0.0,0.0,97,0.00,,---,0.00,0.00,VWS V14.01,2014-08-22 10:39:00,
2014-08-22 06:40:00,69.7,68.8,29.93,SE,146,1.0,1.0,97,0.00,,---,0.00,0.00,VWS V14.01,2014-08-22 10:40:00,
2014-08-22 06:41:00,69.7,68.8,29.93,SSE,148,5.0,5.0,97,0.00,,---,0.00,0.00,VWS V14.01,2014-08-22 10:41:00,
2014-08-22 06:42:00,69.7,68.8,29.93,SSE,150,0.0,5.0,97,0.00,,---,0.00,0.00,VWS V14.01,2014-08-22 10:42:00,
2014-08-22 06:43:00,69.7,68.8,29.92,SSE,150,0.0,3.0,97,0.00,,---,0.00,0.00,VWS V14.01,2014-08-22 10:43:00,
2014-08-22 06:44:00,69.7,68.8,29.93,SSE,150,0.0,0.0,97,0.00,,---,0.00,0.00,VWS V14.01,2014-08-22 10:44:00,
2014-08-22 06:45:00,69.6,68.7,29.92,SE,146,0.0,0.0,97,0.00,,---,0.00,0.00,VWS V14.01,2014-08-22 10:45:00,
2014-08-22 06:46:00,69.7,68.8,29.93,SSE,150,0.0,1.0,97,0.00,,---,0.00,0.00,VWS V14.01,2014-08-22 10:46:00,
2014-08-22 06:47:00,69.7,68.8,29.93,SSE,150,0.0,0.0,97,0.00,,---,0.00,0.00,VWS V14.01,2014-08-22 10:47:00,
2014-08-22 06:48:00,69.7,68.8,29.93,SSE,150,1.0,1.0,97,0.00,,---,0.00,0.00,VWS V14.01,2014-08-22 10:48:00,
2014-08-22 06:49:00,69.7,68.8,29.93,SSE,150,1.0,1.0,97,0.00,,---,0.00,0.00,VWS V14.01,2014-08-22 10:49:00,
2014-08-22 06:50:00,69.7,68.8,29.93,SE,146,0.0,1.0,97,0.00,,---,0.00,0.00,VWS V14.01,2014-08-22 10:50:00,
2014-08-22 06:51:00,69.7,68.8,29.93,South,169,3.0,7.0,97,0.00,,---,0.00,0.00,VWS V14.01,2014-08-22 10:51:00,
2014-08-22 06:52:00,69.8,68.9,29.93,South,169,4.0,5.0,97,0.00,,---,0.00,0.00,VWS V14.01,2014-08-22 10:52:00,
2014-08-22 06:53:00,69.8,68.9,29.93,South,169,4.0,5.0,97,0.00,,---,0.00,0.00,VWS V14.01,2014-08-22 10:53:00,
2014-08-22 06:54:00,69.7,68.8,29.93,SSE,148,2.0,2.0,97,0.00,,---,0.00,0.00,VWS V14.01,2014-08-22 10:54:00,
2014-08-22 06:55:00,69.8,68.9,29.93,South,179,6.0,6.0,97,0.00,,---,0.00,0.00,VWS V14.01,2014-08-22 10:55:00,
2014-08-22 06:56:00,69.8,68.9,29.92,South,179,0.0,1.0,97,0.00,,---,0.00,0.00,VWS V14.01,2014-08-22 10:56:00,
2014-08-22 06:57:00,69.8,68.9,29.92,South,179,1.0,5.0,97,0.00,,---,0.00,0.00,VWS V14.01,2014-08-22 10:57:00,
2014-08-22 06:58:00,69.8,68.9,29.93,South,179,0.0,2.0,97,0.00,,---,0.00,0.00,VWS V14.01,2014-08-22 10:58:00,
2014-08-22 06:59:00,69.8,68.9,29.93,South,179,2.0,2.0,97,0.00,,---,0.00,0.00,VWS V14.01,2014-08-22 10:59:00,
2014-08-22 07:00:00,69.8,68.9,29.93,South,179,4.0,4.0,97,0.00,,---,0.00,0.00,VWS V14.01,2014-08-22 11:00:00,
2014-08-22 07:01:00,69.8,68.9,29.93,South,179,1.0,1.0,97,0.00,,---,0.00,0.00,VWS V14.01,2014-08-22 11:01:00,
2014-08-22 07:02:00,69.8,68.9,29.93,South,179,0.0,0.0,97,0.00,,---,0.00,0.00,VWS V14.01,2014-08-22 11:02:00,
2014-08-22 07:03:00,69.7,68.8,29.93,SSE,150,1.0,3.0,97,0.00,,---,0.00,0.00,VWS V14.01,2014-08-22 11:03:00,
2014-08-22 07:04:00,69.9,69.0,29.93,South,179,2.0,2.0,97,0.00,,---,0.00,0.00,VWS V14.01,2014-08-22 11:04:00,
2014-08-22 07:05:00,69.9,69.0,29.93,South,179,0.0,5.0,97,0.00,,---,0.00,0.00,VWS V14.01,2014-08-22 11:05:00,
2014-08-22 07:06:00,69.9,69.3,29.93,South,182,4.0,7.0,98,0.00,,---,0.00,0.00,VWS V14.01,2014-08-22 11:06:00,
2014-08-22 07:07:00,69.9,69.3,29.93,South,182,1.0,5.0,98,0.00,,---,0.00,0.00,VWS V14.01,2014-08-22 11:07:00,
2014-08-22 07:08:00,69.9,69.3,29.93,South,182,0.0,1.0,98,0.00,,---,0.00,0.00,VWS V14.01,2014-08-22 11:08:00,
2014-08-22 07:09:00,69.9,69.3,29.93,South,182,0.0,1.0,98,0.00,,---,0.00,0.00,VWS V14.01,2014-08-22 11:09:00,
2014-08-22 07:10:00,69.9,69.3,29.93,South,182,0.0,4.0,98,0.00,,---,0.00,0.00,VWS V14.01,2014-08-22 11:10:00,
2014-08-22 07:11:00,69.9,69.3,29.93,South,182,1.0,1.0,98,0.00,,---,0.00,0.00,VWS V14.01,2014-08-22 11:11:00,
2014-08-22 07:12:00,69.8,68.9,29.93,South,179,0.0,0.0,97,0.00,,---,0.00,0.00,VWS V14.01,2014-08-22 11:12:00,
2014-08-22 07:13:00,70.0,69.4,29.93,South,182,5.0,5.0,98,0.00,,---,0.00,0.00,VWS V14.01,2014-08-22 11:13:00,
2014-08-22 07:14:00,70.0,69.4,29.93,South,182,0.0,3.0,98,0.00,,---,0.00,0.00,VWS V14.01,2014-08-22 11:14:00,
2014-08-22 07:15:00,70.0,69.4,29.93,South,182,3.0,4.0,98,0.00,,---,0.00,0.00,VWS V14.01,2014-08-22 11:15:00,
2014-08-22 07:16:00,70.0,69.4,29.93,South,182,1.0,4.0,98,0.00,,---,0.00,0.00,VWS V14.01,2014-08-22 11:16:00,
2014-08-22 07:17:00,70.0,69.4,29.93,South,182,0.0,0.0,98,0.00,,---,0.00,0.00,VWS V14.01,2014-08-22 11:17:00,
2014-08-22 07:18:00,69.9,69.0,29.93,South,179,2.0,6.0,97,0.00,,---,0.00,0.00,VWS V14.01,2014-08-22 11:18:00,
2014-08-22 07:19:00,69.9,69.3,29.93,South,182,4.0,7.0,98,0.00,,---,0.00,0.00,VWS V14.01,2014-08-22 11:19:00,
2014-08-22 07:20:00,70.0,69.4,29.93,South,182,0.0,1.0,98,0.00,,---,0.00,0.00,VWS V14.01,2014-08-22 11:20:00,
2014-08-22 07:21:00,69.9,69.3,29.93,South,182,0.0,4.0,98,0.00,,---,0.00,0.00,VWS V14.01,2014-08-22 11:21:00,
2014-08-22 07:22:00,70.0,69.4,29.93,South,183,0.0,5.0,98,0.00,,---,0.00,0.00,VWS V14.01,2014-08-22 11:22:00,
2014-08-22 07:23:00,69.9,69.3,29.93,South,183,0.0,5.0,98,0.00,,---,0.00,0.00,VWS V14.01,2014-08-22 11:23:00,
2014-08-22 07:24:00,69.9,69.3,29.93,South,183,2.0,2.0,98,0.00,,---,0.00,0.00,VWS V14.01,2014-08-22 11:24:00,
2014-08-22 07:25:00,69.9,69.3,29.94,South,183,0.0,1.0,98,0.00,,---,0.00,0.00,VWS V14.01,2014-08-22 11:25:00,
2014-08-22 07:26:00,69.9,69.3,29.93,South,183,0.0,1.0,98,0.00,,---,0.00,0.00,VWS V14.01,2014-08-22 11:26:00,
2014-08-22 07:27:00,69.9,69.3,29.93,South,183,0.0,1.0,98,0.00,,---,0.00,0.00,VWS V14.01,2014-08-22 11:27:00,
2014-08-22 07:28:00,69.9,69.3,29.94,South,183,0.0,2.0,98,0.00,,---,0.00,0.00,VWS V14.01,2014-08-22 11:28:00,
2014-08-22 07:29:00,70.0,69.4,29.93,South,182,3.0,5.0,98,0.00,,---,0.00,0.00,VWS V14.01,2014-08-22 11:29:00,
2014-08-22 07:30:00,69.9,69.3,29.94,South,183,0.0,0.0,98,0.00,,---,0.00,0.00,VWS V14.01,2014-08-22 11:30:00,
2014-08-22 07:31:00,70.0,69.4,29.93,South,182,0.0,1.0,98,0.00,,---,0.00,0.00,VWS V14.01,2014-08-22 11:31:00,
2014-08-22 07:32:00,69.9,69.3,29.94,South,183,0.0,1.0,98,0.00,,---,0.00,0.00,VWS V14.01,2014-08-22 11:32:00,
2014-08-22 07:33:00,69.9,69.3,29.94,South,183,0.0,0.0,98,0.00,,---,0.00,0.00,VWS V14.01,2014-08-22 11:33:00,
2014-08-22 07:34:00,69.9,69.3,29.94,South,183,0.0,2.0,98,0.00,,---,0.00,0.00,VWS V14.01,2014-08-22 11:34:00,
2014-08-22 07:35:00,69.9,69.3,29.94,South,183,0.0,0.0,98,0.00,,---,0.00,0.00,VWS V14.01,2014-08-22 11:35:00,
2014-08-22 07:36:00,69.9,69.3,29.94,South,183,0.0,0.0,98,0.00,,---,0.00,0.00,VWS V14.01,2014-08-22 11:36:00,
2014-08-22 07:37:00,69.9,69.3,29.94,South,183,0.0,1.0,98,0.00,,---,0.00,0.00,VWS V14.01,2014-08-22 11:37:00,
2014-08-22 07:38:00,69.9,69.3,29.94,South,183,0.0,1.0,98,0.00,,---,0.00,0.00,VWS V14.01,2014-08-22 11:38:00,
2014-08-22 07:39:00,69.9,69.3,29.94,South,183,1.0,1.0,98,0.00,,---,0.00,0.00,VWS V14.01,2014-08-22 11:39:00,
2014-08-22 07:40:00,69.9,69.3,29.95,South,183,3.0,4.0,98,0.00,,---,0.00,0.00,VWS V14.01,2014-08-22 11:40:00,
2014-08-22 07:41:00,69.9,69.3,29.94,South,183,1.0,2.0,98,0.00,,---,0.00,0.00,VWS V14.01,2014-08-22 11:41:00,
2014-08-22 07:42:00,69.8,69.2,29.95,South,183,0.0,1.0,98,0.00,,---,0.00,0.00,VWS V14.01,2014-08-22 11:42:00,
2014-08-22 07:43:00,69.9,69.3,29.94,South,183,0.0,0.0,98,0.00,,---,0.00,0.00,VWS V14.01,2014-08-22 11:43:00,
2014-08-22 07:44:00,69.8,69.2,29.95,South,183,0.0,3.0,98,0.00,,---,0.00,0.00,VWS V14.01,2014-08-22 11:44:00,
2014-08-22 07:45:00,69.8,69.2,29.94,South,183,2.0,4.0,98,0.00,,---,0.00,0.00,VWS V14.01,2014-08-22 11:45:00,
2014-08-22 07:46:00,69.8,69.2,29.94,South,183,0.0,2.0,98,0.00,,---,0.00,0.00,VWS V14.01,2014-08-22 11:46:00,
2014-08-22 07:47:00,69.8,69.2,29.94,South,183,4.0,4.0,98,0.00,,---,0.00,0.00,VWS V14.01,2014-08-22 11:47:00,
2014-08-22 07:48:00,69.8,69.2,29.94,South,183,0.0,4.0,98,0.00,,---,0.00,0.00,VWS V14.01,2014-08-22 11:48:00,
2014-08-22 07:49:00,69.8,69.2,29.94,South,183,0.0,1.0,98,0.00,,---,0.00,0.00,VWS V14.01,2014-08-22 11:49:00,
2014-08-22 07:50:00,69.8,69.2,29.95,South,183,0.0,0.0,98,0.00,,---,0.00,0.00,VWS V14.01,2014-08-22 11:50:00,
2014-08-22 07:51:00,69.9,69.3,29.94,South,183,0.0,1.0,98,0.00,,---,0.00,0.00,VWS V14.01,2014-08-22 11:51:00,
2014-08-22 07:52:00,69.8,69.2,29.95,South,183,0.0,0.0,98,0.00,,---,0.00,0.00,VWS V14.01,2014-08-22 11:52:00,
2014-08-22 07:53:00,69.8,69.2,29.95,South,183,0.0,0.0,98,0.00,,---,0.00,0.00,VWS V14.01,2014-08-22 11:53:00,
2014-08-22 07:54:00,69.8,69.2,29.95,South,183,0.0,0.0,98,0.00,,---,0.00,0.00,VWS V14.01,2014-08-22 11:54:00,
2014-08-22 07:55:00,69.8,69.2,29.95,South,183,0.0,1.0,98,0.00,,---,0.00,0.00,VWS V14.01,2014-08-22 11:55:00,
2014-08-22 07:56:00,69.8,69.2,29.95,South,183,0.0,0.0,98,0.00,,---,0.00,0.00,VWS V14.01,2014-08-22 11:56:00,
2014-08-22 07:57:00,69.8,69.2,29.95,South,183,0.0,0.0,98,0.00,,---,0.00,0.00,VWS V14.01,2014-08-22 11:57:00,
2014-08-22 07:58:00,69.8,69.2,29.95,South,183,0.0,0.0,98,0.00,,---,0.00,0.00,VWS V14.01,2014-08-22 11:58:00,
2014-08-22 07:59:00,69.9,69.3,29.95,South,183,1.0,1.0,98,0.00,,---,0.00,0.00,VWS V14.01,2014-08-22 11:59:00,
2014-08-22 08:00:00,69.8,69.2,29.94,South,183,4.0,4.0,98,0.00,,---,0.00,0.00,VWS V14.01,2014-08-22 12:00:00,
2014-08-22 08:01:00,69.9,69.3,29.96,South,183,0.0,0.0,98,0.00,,---,0.00,0.00,VWS V14.01,2014-08-22 12:01:00,
2014-08-22 08:02:00,69.8,69.2,29.94,South,183,0.0,1.0,98,0.00,,---,0.00,0.00,VWS V14.01,2014-08-22 12:02:00,
2014-08-22 08:03:00,69.9,69.3,29.96,South,183,0.0,0.0,98,0.00,,---,0.00,0.00,VWS V14.01,2014-08-22 12:03:00,
2014-08-22 08:04:00,69.9,69.3,29.95,South,183,0.0,0.0,98,0.00,,---,0.00,0.00,VWS V14.01,2014-08-22 12:04:00,
2014-08-22 08:05:00,69.8,69.2,29.95,South,183,0.0,1.0,98,0.00,,---,0.00,0.00,VWS V14.01,2014-08-22 12:05:00,
2014-08-22 08:06:00,69.9,69.3,29.95,South,183,0.0,0.0,98,0.00,,---,0.00,0.00,VWS V14.01,2014-08-22 12:06:00,
2014-08-22 08:07:00,69.9,69.3,29.96,South,183,0.0,0.0,98,0.00,,---,0.00,0.00,VWS V14.01,2014-08-22 12:07:00,
2014-08-22 08:08:00,69.9,69.3,29.96,South,183,0.0,0.0,98,0.00,,---,0.00,0.00,VWS V14.01,2014-08-22 12:08:00,
2014-08-22 08:09:00,69.9,69.3,29.96,South,183,0.0,0.0,98,0.00,,---,0.00,0.00,VWS V14.01,2014-08-22 12:09:00,
2014-08-22 08:10:00,69.9,69.3,29.96,South,183,0.0,0.0,98,0.00,,---,0.00,0.00,VWS V14.01,2014-08-22 12:10:00,
2014-08-22 08:11:00,69.9,69.3,29.95,South,183,0.0,0.0,98,0.00,,---,0.00,0.00,VWS V14.01,2014-08-22 12:11:00,
2014-08-22 08:12:00,69.8,69.2,29.95,South,183,0.0,0.0,98,0.00,,---,0.00,0.00,VWS V14.01,2014-08-22 12:12:00,
2014-08-22 08:13:00,69.9,69.3,29.95,South,183,0.0,0.0,98,0.00,,---,0.00,0.00,VWS V14.01,2014-08-22 12:13:00,
2014-08-22 08:14:00,69.9,69.3,29.95,South,183,0.0,0.0,98,0.00,,---,0.00,0.00,VWS V14.01,2014-08-22 12:14:00,
2014-08-22 08:15:00,69.9,69.3,29.95,South,183,0.0,0.0,98,0.00,,---,0.00,0.00,VWS V14.01,2014-08-22 12:15:00,
2014-08-22 08:16:00,69.9,69.3,29.95,South,183,0.0,0.0,98,0.00,,---,0.00,0.00,VWS V14.01,2014-08-22 12:16:00,
2014-08-22 08:17:00,69.9,69.3,29.95,South,183,0.0,0.0,98,0.00,,---,0.00,0.00,VWS V14.01,2014-08-22 12:17:00,
2014-08-22 08:18:00,69.9,69.3,29.96,South,183,0.0,1.0,98,0.00,,---,0.00,0.00,VWS V14.01,2014-08-22 12:18:00,
2014-08-22 08:19:00,70.0,69.4,29.96,South,183,0.0,1.0,98,0.00,,---,0.00,0.00,VWS V14.01,2014-08-22 12:19:00,
2014-08-22 08:20:00,70.0,69.4,29.96,South,183,0.0,1.0,98,0.00,,---,0.00,0.00,VWS V14.01,2014-08-22 12:20:00,
2014-08-22 08:21:00,70.0,69.4,29.96,South,183,0.0,1.0,98,0.00,,---,0.00,0.00,VWS V14.01,2014-08-22 12:21:00,
2014-08-22 08:22:00,70.0,69.4,29.96,South,183,0.0,1.0,98,0.00,,---,0.00,0.00,VWS V14.01,2014-08-22 12:22:00,
2014-08-22 08:23:00,70.0,69.4,29.96,South,183,1.0,1.0,98,0.00,,---,0.00,0.00,VWS V14.01,2014-08-22 12:23:00,
2014-08-22 08:24:00,70.0,69.4,29.96,South,183,0.0,2.0,98,0.00,,---,0.00,0.00,VWS V14.01,2014-08-22 12:24:00,
2014-08-22 08:25:00,69.9,69.3,29.95,South,183,0.0,1.0,98,0.00,,---,0.00,0.00,VWS V14.01,2014-08-22 12:25:00,
2014-08-22 08:26:00,70.0,69.4,29.95,South,183,0.0,1.0,98,0.00,,---,0.00,0.00,VWS V14.01,2014-08-22 12:26:00,
2014-08-22 08:27:00,70.0,69.4,29.95,South,183,0.0,4.0,98,0.00,,---,0.00,0.00,VWS V14.01,2014-08-22 12:27:00,
2014-08-22 08:28:00,70.0,69.4,29.95,South,183,0.0,0.0,98,0.00,,---,0.00,0.00,VWS V14.01,2014-08-22 12:28:00,
2014-08-22 08:29:00,70.0,69.4,29.95,South,183,1.0,1.0,98,0.00,,---,0.00,0.00,VWS V14.01,2014-08-22 12:29:00,
2014-08-22 08:30:00,70.0,69.4,29.95,South,183,0.0,0.0,98,0.00,,---,0.00,0.00,VWS V14.01,2014-08-22 12:30:00,
2014-08-22 08:31:00,69.9,69.3,29.96,South,183,0.0,1.0,98,0.00,,---,0.00,0.00,VWS V14.01,2014-08-22 12:31:00,
2014-08-22 08:32:00,70.0,69.4,29.94,South,183,0.0,2.0,98,0.00,,---,0.00,0.00,VWS V14.01,2014-08-22 12:32:00,
2014-08-22 08:33:00,70.0,69.4,29.94,South,183,0.0,0.0,98,0.00,,---,0.00,0.00,VWS V14.01,2014-08-22 12:33:00,
2014-08-22 08:34:00,70.0,69.4,29.95,South,183,2.0,4.0,98,0.00,,---,0.00,0.00,VWS V14.01,2014-08-22 12:34:00,
2014-08-22 08:35:00,70.0,69.4,29.95,South,183,1.0,1.0,98,0.00,,---,0.00,0.00,VWS V14.01,2014-08-22 12:35:00,
2014-08-22 08:36:00,70.0,69.4,29.96,South,183,1.0,1.0,98,0.00,,---,0.00,0.00,VWS V14.01,2014-08-22 12:36:00,
2014-08-22 08:37:00,70.0,69.4,29.95,South,183,0.0,2.0,98,0.00,,---,0.00,0.00,VWS V14.01,2014-08-22 12:37:00,
2014-08-22 08:38:00,70.0,69.4,29.95,South,183,0.0,2.0,98,0.00,,---,0.00,0.00,VWS V14.01,2014-08-22 12:38:00,
2014-08-22 08:39:00,70.1,69.5,29.95,South,183,2.0,2.0,98,0.00,,---,0.00,0.00,VWS V14.01,2014-08-22 12:39:00,
2014-08-22 08:40:00,70.1,69.5,29.95,SSW,196,2.0,7.0,98,0.00,,---,0.00,0.00,VWS V14.01,2014-08-22 12:40:00,
2014-08-22 08:41:00,70.1,69.5,29.94,SSW,196,1.0,4.0,98,0.00,,---,0.00,0.00,VWS V14.01,2014-08-22 12:41:00,
2014-08-22 08:42:00,70.1,69.5,29.94,SSW,196,3.0,5.0,98,0.00,,---,0.00,0.00,VWS V14.01,2014-08-22 12:42:00,
2014-08-22 08:43:00,70.0,69.4,29.93,SSW,196,0.0,5.0,98,0.00,,---,0.00,0.00,VWS V14.01,2014-08-22 12:43:00,
2014-08-22 08:44:00,70.0,69.4,29.93,SSW,196,1.0,1.0,98,0.00,,---,0.00,0.00,VWS V14.01,2014-08-22 12:44:00,
2014-08-22 08:45:00,70.0,69.4,29.93,SSW,196,0.0,2.0,98,0.00,,---,0.00,0.00,VWS V14.01,2014-08-22 12:45:00,
2014-08-22 08:46:00,70.0,69.4,29.94,South,183,0.0,0.0,98,0.00,,---,0.00,0.00,VWS V14.01,2014-08-22 12:46:00,
2014-08-22 08:47:00,70.0,69.4,29.93,SSW,201,6.0,6.0,98,0.00,,---,0.00,0.00,VWS V14.01,2014-08-22 12:47:00,
2014-08-22 08:48:00,70.0,69.4,29.93,SSW,202,4.0,6.0,98,0.00,,---,0.00,0.00,VWS V14.01,2014-08-22 12:48:00,
2014-08-22 08:49:00,70.0,69.4,29.93,SSW,211,4.0,7.0,98,0.00,,---,0.00,0.00,VWS V14.01,2014-08-22 12:49:00,
2014-08-22 08:50:00,69.9,69.3,29.93,SSW,211,0.0,7.0,98,0.00,,---,0.00,0.00,VWS V14.01,2014-08-22 12:50:00,
2014-08-22 08:51:00,69.9,69.3,29.93,SSW,211,2.0,5.0,98,0.00,,---,0.00,0.00,VWS V14.01,2014-08-22 12:51:00,
2014-08-22 08:52:00,69.9,69.3,29.93,SSW,211,0.0,5.0,98,0.00,,---,0.00,0.00,VWS V14.01,2014-08-22 12:52:00,
2014-08-22 08:53:00,69.9,69.3,29.93,SSW,212,0.0,5.0,98,0.00,,---,0.00,0.00,VWS V14.01,2014-08-22 12:53:00,
2014-08-22 08:54:00,69.9,69.3,29.93,SW,215,8.0,8.0,98,0.00,,---,0.00,0.00,VWS V14.01,2014-08-22 12:54:00,
2014-08-22 08:55:00,69.9,69.3,29.93,WSW,241,0.0,7.0,98,0.00,,---,0.00,0.00,VWS V14.01,2014-08-22 12:55:00,
2014-08-22 08:56:00,70.0,69.4,29.93,WSW,241,2.0,5.0,98,0.00,,---,0.00,0.00,VWS V14.01,2014-08-22 12:56:00,
2014-08-22 08:57:00,70.0,69.4,29.93,WSW,241,0.0,4.0,98,0.00,,---,0.00,0.00,VWS V14.01,2014-08-22 12:57:00,
2014-08-22 08:58:00,70.0,69.4,29.93,SW,236,1.0,6.0,98,0.00,,---,0.00,0.00,VWS V14.01,2014-08-22 12:58:00,
2014-08-22 08:59:00,70.0,69.4,29.93,SSW,199,3.0,4.0,98,0.00,,---,0.00,0.00,VWS V14.01,2014-08-22 12:59:00,
2014-08-22 09:00:00,70.0,69.4,29.93,SW,232,0.0,1.0,98,0.00,,---,0.00,0.00,VWS V14.01,2014-08-22 13:00:00,
2014-08-22 09:01:00,70.0,69.4,29.93,SW,232,3.0,5.0,98,0.00,,---,0.00,0.00,VWS V14.01,2014-08-22 13:01:00,
2014-08-22 09:02:00,70.1,69.5,29.93,SW,232,1.0,3.0,98,0.00,,---,0.00,0.00,VWS V14.01,2014-08-22 13:02:00,
2014-08-22 09:03:00,70.1,69.5,29.93,WSW,249,4.0,10.0,98,0.00,,---,0.00,0.00,VWS V14.01,2014-08-22 13:03:00,
2014-08-22 09:04:00,70.1,69.5,29.93,WSW,249,2.0,3.0,98,0.00,,---,0.00,0.00,VWS V14.01,2014-08-22 13:04:00,
2014-08-22 09:05:00,70.1,69.5,29.93,WSW,244,0.0,8.0,98,0.00,,---,0.00,0.00,VWS V14.01,2014-08-22 13:05:00,
2014-08-22 09:06:00,70.1,69.5,29.93,WSW,244,0.0,1.0,98,0.00,,---,0.00,0.00,VWS V14.01,2014-08-22 13:06:00,
2014-08-22 09:07:00,70.1,69.5,29.93,WSW,244,0.0,2.0,98,0.00,,---,0.00,0.00,VWS V14.01,2014-08-22 13:07:00,
2014-08-22 09:08:00,70.1,69.5,29.93,WSW,244,0.0,0.0,98,0.00,,---,0.00,0.00,VWS V14.01,2014-08-22 13:08:00,
2014-08-22 09:09:00,70.1,69.5,29.93,WSW,244,1.0,2.0,98,0.00,,---,0.00,0.00,VWS V14.01,2014-08-22 13:09:00,
2014-08-22 09:10:00,70.1,69.5,29.93,WSW,248,4.0,7.0,98,0.00,,---,0.00,0.00,VWS V14.01,2014-08-22 13:10:00,
2014-08-22 09:11:00,70.2,69.6,29.93,WSW,248,0.0,5.0,98,0.00,,---,0.00,0.00,VWS V14.01,2014-08-22 13:11:00,
2014-08-22 09:12:00,70.2,69.6,29.93,WSW,248,1.0,1.0,98,0.00,,---,0.00,0.00,VWS V14.01,2014-08-22 13:12:00,
2014-08-22 09:13:00,70.2,69.6,29.93,WSW,248,3.0,6.0,98,0.00,,---,0.00,0.00,VWS V14.01,2014-08-22 13:13:00,
2014-08-22 09:14:00,70.2,69.6,29.93,WSW,248,0.0,3.0,98,0.00,,---,0.00,0.00,VWS V14.01,2014-08-22 13:14:00,
2014-08-22 09:15:00,70.2,69.6,29.93,WSW,248,0.0,0.0,98,0.00,,---,0.00,0.00,VWS V14.01,2014-08-22 13:15:00,
2014-08-22 09:16:00,70.2,69.6,29.93,WSW,248,2.0,7.0,98,0.00,,---,0.00,0.00,VWS V14.01,2014-08-22 13:16:00,
2014-08-22 09:17:00,70.2,69.6,29.93,WSW,248,2.0,5.0,98,0.00,,---,0.00,0.00,VWS V14.01,2014-08-22 13:17:00,
2014-08-22 09:18:00,70.2,69.6,29.93,WSW,248,0.0,5.0,98,0.00,,---,0.00,0.00,VWS V14.01,2014-08-22 13:18:00,
2014-08-22 09:19:00,70.1,69.5,29.93,WSW,244,0.0,1.0,98,0.00,,---,0.00,0.00,VWS V14.01,2014-08-22 13:19:00,
2014-08-22 09:20:00,70.3,69.7,29.93,WSW,248,0.0,2.0,98,0.00,,---,0.00,0.00,VWS V14.01,2014-08-22 13:20:00,
2014-08-22 09:21:00,70.1,69.5,29.93,WSW,244,0.0,0.0,98,0.00,,---,0.00,0.00,VWS V14.01,2014-08-22 13:21:00,
2014-08-22 09:22:00,70.3,69.7,29.93,WSW,248,0.0,1.0,98,0.00,,---,0.00,0.00,VWS V14.01,2014-08-22 13:22:00,
2014-08-22 09:23:00,70.3,69.7,29.93,WSW,248,0.0,1.0,98,0.00,,---,0.00,0.00,VWS V14.01,2014-08-22 13:23:00,
2014-08-22 09:24:00,70.3,69.7,29.93,WSW,248,3.0,4.0,98,0.00,,---,0.00,0.00,VWS V14.01,2014-08-22 13:24:00,
2014-08-22 09:25:00,70.3,69.7,29.93,WSW,248,0.0,3.0,98,0.00,,---,0.00,0.00,VWS V14.01,2014-08-22 13:25:00,
2014-08-22 09:26:00,70.2,69.6,29.93,WSW,248,4.0,5.0,98,0.00,,---,0.00,0.00,VWS V14.01,2014-08-22 13:26:00,
2014-08-22 09:27:00,70.3,69.7,29.93,WSW,248,3.0,3.0,98,0.00,,---,0.00,0.00,VWS V14.01,2014-08-22 13:27:00,
2014-08-22 09:28:00,70.3,69.7,29.93,WSW,248,2.0,5.0,98,0.00,,---,0.00,0.00,VWS V14.01,2014-08-22 13:28:00,
2014-08-22 09:29:00,70.3,69.7,29.93,WSW,248,0.0,2.0,98,0.00,,---,0.00,0.00,VWS V14.01,2014-08-22 13:29:00,
2014-08-22 09:30:00,70.4,69.8,29.93,WSW,248,0.0,2.0,98,0.00,,---,0.00,0.00,VWS V14.01,2014-08-22 13:30:00,
2014-08-22 09:31:00,70.3,69.7,29.93,WSW,248,5.0,5.0,98,0.00,,---,0.00,0.00,VWS V14.01,2014-08-22 13:31:00,
2014-08-22 09:32:00,70.3,69.7,29.93,WSW,248,0.0,5.0,98,0.00,,---,0.00,0.00,VWS V14.01,2014-08-22 13:32:00,
2014-08-22 09:33:00,70.3,69.7,29.93,WSW,248,0.0,0.0,98,0.00,,---,0.00,0.00,VWS V14.01,2014-08-22 13:33:00,
2014-08-22 09:34:00,70.4,69.8,29.92,WSW,248,0.0,0.0,98,0.00,,---,0.00,0.00,VWS V14.01,2014-08-22 13:34:00,
2014-08-22 09:35:00,70.4,69.8,29.92,WSW,248,0.0,0.0,98,0.00,,---,0.00,0.00,VWS V14.01,2014-08-22 13:35:00,
2014-08-22 09:36:00,70.4,69.8,29.92,WSW,248,1.0,2.0,98,0.00,,---,0.00,0.00,VWS V14.01,2014-08-22 13:36:00,
2014-08-22 09:37:00,70.4,69.8,29.92,WSW,248,0.0,1.0,98,0.00,,---,0.00,0.00,VWS V14.01,2014-08-22 13:37:00,
2014-08-22 09:38:00,70.3,69.7,29.93,WSW,248,0.0,1.0,98,0.00,,---,0.00,0.00,VWS V14.01,2014-08-22 13:38:00,
2014-08-22 09:39:00,70.4,69.8,29.92,WSW,248,2.0,5.0,98,0.00,,---,0.00,0.00,VWS V14.01,2014-08-22 13:39:00,
2014-08-22 09:40:00,70.4,69.8,29.92,WSW,248,0.0,2.0,98,0.00,,---,0.00,0.00,VWS V14.01,2014-08-22 13:40:00,
2014-08-22 09:41:00,70.4,69.8,29.92,WSW,248,0.0,2.0,98,0.00,,---,0.00,0.00,VWS V14.01,2014-08-22 13:41:00,
2014-08-22 09:42:00,70.5,69.9,29.92,WSW,248,0.0,1.0,98,0.00,,---,0.00,0.00,VWS V14.01,2014-08-22 13:42:00,
2014-08-22 09:43:00,70.5,69.9,29.92,WSW,248,0.0,2.0,98,0.00,,---,0.00,0.00,VWS V14.01,2014-08-22 13:43:00,
2014-08-22 09:44:00,70.5,69.9,29.92,WSW,248,0.0,0.0,98,0.00,,---,0.00,0.00,VWS V14.01,2014-08-22 13:44:00,
2014-08-22 09:45:00,70.5,69.9,29.92,WSW,248,0.0,0.0,98,0.00,,---,0.00,0.00,VWS V14.01,2014-08-22 13:45:00,
2014-08-22 09:46:00,70.5,69.9,29.92,WSW,248,1.0,1.0,98,0.00,,---,0.00,0.00,VWS V14.01,2014-08-22 13:46:00,
2014-08-22 09:47:00,70.5,69.9,29.92,WSW,248,0.0,2.0,98,0.00,,---,0.00,0.00,VWS V14.01,2014-08-22 13:47:00,
2014-08-22 09:48:00,70.6,70.0,29.92,WSW,248,0.0,0.0,98,0.00,,---,0.00,0.00,VWS V14.01,2014-08-22 13:48:00,
2014-08-22 09:49:00,70.6,70.0,29.92,WSW,248,1.0,1.0,98,0.00,,---,0.00,0.00,VWS V14.01,2014-08-22 13:49:00,
2014-08-22 09:50:00,70.4,69.8,29.92,WSW,248,0.0,2.0,98,0.00,,---,0.00,0.00,VWS V14.01,2014-08-22 13:50:00,
2014-08-22 09:51:00,70.6,70.0,29.92,WSW,248,0.0,1.0,98,0.00,,---,0.00,0.00,VWS V14.01,2014-08-22 13:51:00,
2014-08-22 09:52:00,70.6,70.0,29.92,WSW,248,0.0,4.0,98,0.00,,---,0.00,0.00,VWS V14.01,2014-08-22 13:52:00,
2014-08-22 09:53:00,70.6,70.0,29.92,WSW,248,1.0,1.0,98,0.00,,---,0.00,0.00,VWS V14.01,2014-08-22 13:53:00,
2014-08-22 09:54:00,70.4,69.8,29.92,WSW,248,0.0,3.0,98,0.00,,---,0.00,0.00,VWS V14.01,2014-08-22 13:54:00,
2014-08-22 09:55:00,70.7,70.1,29.92,WSW,248,1.0,2.0,98,0.00,,---,0.00,0.00,VWS V14.01,2014-08-22 13:55:00,
2014-08-22 09:56:00,70.7,70.1,29.92,WSW,248,1.0,1.0,98,0.00,,---,0.00,0.00,VWS V14.01,2014-08-22 13:56:00,
2014-08-22 09:57:00,70.5,69.9,29.92,WSW,248,0.0,0.0,98,0.00,,---,0.00,0.00,VWS V14.01,2014-08-22 13:57:00,
2014-08-22 09:58:00,70.7,70.1,29.92,WSW,248,0.0,1.0,98,0.00,,---,0.00,0.00,VWS V14.01,2014-08-22 13:58:00,
2014-08-22 09:59:00,70.5,69.9,29.92,WSW,248,0.0,1.0,98,0.00,,---,0.00,0.00,VWS V14.01,2014-08-22 13:59:00,
2014-08-22 10:00:00,70.7,70.1,29.92,WSW,248,0.0,1.0,98,0.00,,---,0.00,0.00,VWS V14.01,2014-08-22 14:00:00,
2014-08-22 10:01:00,70.7,70.1,29.92,WSW,248,0.0,5.0,98,0.00,,---,0.00,0.00,VWS V14.01,2014-08-22 14:01:00,
2014-08-22 10:02:00,70.7,70.1,29.92,WSW,248,0.0,1.0,98,0.00,,---,0.00,0.00,VWS V14.01,2014-08-22 14:02:00,
2014-08-22 10:03:00,70.7,70.1,29.92,WSW,248,0.0,0.0,98,0.00,,---,0.00,0.00,VWS V14.01,2014-08-22 14:03:00,
2014-08-22 10:04:00,70.8,70.2,29.92,WSW,248,0.0,1.0,98,0.00,,---,0.00,0.00,VWS V14.01,2014-08-22 14:04:00,
2014-08-22 10:05:00,70.8,70.2,29.92,WSW,248,0.0,1.0,98,0.00,,---,0.00,0.00,VWS V14.01,2014-08-22 14:05:00,
2014-08-22 10:06:00,70.8,70.2,29.92,WSW,248,0.0,0.0,98,0.00,,---,0.00,0.00,VWS V14.01,2014-08-22 14:06:00,
2014-08-22 10:07:00,70.8,70.2,29.92,WSW,248,0.0,0.0,98,0.00,,---,0.00,0.00,VWS V14.01,2014-08-22 14:07:00,
2014-08-22 10:08:00,70.8,70.2,29.92,WSW,248,0.0,0.0,98,0.00,,---,0.00,0.00,VWS V14.01,2014-08-22 14:08:00,
2014-08-22 10:09:00,70.8,70.2,29.92,WSW,248,0.0,0.0,98,0.00,,---,0.00,0.00,VWS V14.01,2014-08-22 14:09:00,
2014-08-22 10:10:00,70.8,70.2,29.92,WSW,248,0.0,0.0,98,0.00,,---,0.00,0.00,VWS V14.01,2014-08-22 14:10:00,
2014-08-22 10:11:00,70.8,70.2,29.92,WSW,248,0.0,0.0,98,0.00,,---,0.00,0.00,VWS V14.01,2014-08-22 14:11:00,
2014-08-22 10:12:00,70.8,70.2,29.92,WSW,248,0.0,0.0,98,0.01,,---,0.01,0.00,VWS V14.01,2014-08-22 14:12:00,
2014-08-22 10:13:00,70.7,70.1,29.92,WSW,248,0.0,1.0,98,0.00,,---,0.00,0.00,VWS V14.01,2014-08-22 14:13:00,
2014-08-22 10:14:00,70.8,70.2,29.92,WSW,248,0.0,3.0,98,0.01,,---,0.01,0.00,VWS V14.01,2014-08-22 14:14:00,
2014-08-22 10:15:00,70.9,70.3,29.91,WSW,248,0.0,1.0,98,0.01,,---,0.01,0.00,VWS V14.01,2014-08-22 14:15:00,
2014-08-22 10:16:00,70.9,70.3,29.92,WSW,248,0.0,0.0,98,0.01,,---,0.01,0.00,VWS V14.01,2014-08-22 14:16:00,
2014-08-22 10:17:00,70.9,70.3,29.91,WSW,248,0.0,0.0,98,0.01,,---,0.01,0.00,VWS V14.01,2014-08-22 14:17:00,
2014-08-22 10:18:00,70.9,70.3,29.91,WSW,248,0.0,0.0,98,0.01,,---,0.01,0.00,VWS V14.01,2014-08-22 14:18:00,
2014-08-22 10:19:00,70.9,70.3,29.91,WSW,248,0.0,0.0,98,0.01,,---,0.01,0.00,VWS V14.01,2014-08-22 14:19:00,
2014-08-22 10:20:00,70.8,70.2,29.92,WSW,248,0.0,0.0,98,0.00,,---,0.00,0.00,VWS V14.01,2014-08-22 14:20:00,
2014-08-22 10:21:00,71.0,70.4,29.91,WSW,248,0.0,0.0,98,0.01,,---,0.01,0.00,VWS V14.01,2014-08-22 14:21:00,
2014-08-22 10:22:00,71.0,70.4,29.91,WSW,248,1.0,1.0,98,0.01,,---,0.01,0.00,VWS V14.01,2014-08-22 14:22:00,
2014-08-22 10:23:00,71.0,70.4,29.91,WSW,248,0.0,1.0,98,0.01,,---,0.01,0.00,VWS V14.01,2014-08-22 14:23:00,
2014-08-22 10:24:00,71.0,70.4,29.90,WSW,248,0.0,3.0,98,0.01,,---,0.01,0.00,VWS V14.01,2014-08-22 14:24:00,
2014-08-22 10:25:00,71.0,70.4,29.90,WSW,248,1.0,3.0,98,0.01,,---,0.01,0.00,VWS V14.01,2014-08-22 14:25:00,
2014-08-22 10:26:00,71.0,70.4,29.90,WSW,248,0.0,5.0,98,0.01,,---,0.01,0.00,VWS V14.01,2014-08-22 14:26:00,
2014-08-22 10:27:00,71.0,70.4,29.90,WSW,248,0.0,6.0,98,0.01,,---,0.01,0.00,VWS V14.01,2014-08-22 14:27:00,
2014-08-22 10:28:00,70.9,70.3,29.91,WSW,248,0.0,1.0,98,0.01,,---,0.01,0.00,VWS V14.01,2014-08-22 14:28:00,
2014-08-22 10:29:00,71.0,70.4,29.90,WSW,248,0.0,1.0,98,0.01,,---,0.01,0.00,VWS V14.01,2014-08-22 14:29:00,
2014-08-22 10:30:00,71.0,70.4,29.91,WSW,248,1.0,5.0,98,0.01,,---,0.01,0.00,VWS V14.01,2014-08-22 14:30:00,
2014-08-22 10:31:00,71.0,70.4,29.91,WSW,248,0.0,2.0,98,0.01,,---,0.01,0.00,VWS V14.01,2014-08-22 14:31:00,
2014-08-22 10:32:00,71.0,70.4,29.91,WSW,248,0.0,0.0,98,0.01,,---,0.01,0.00,VWS V14.01,2014-08-22 14:32:00,
2014-08-22 10:33:00,71.1,70.5,29.91,WSW,248,1.0,4.0,98,0.01,,---,0.01,0.00,VWS V14.01,2014-08-22 14:33:00,
2014-08-22 10:34:00,71.1,70.5,29.91,WSW,248,1.0,4.0,98,0.01,,---,0.01,0.00,VWS V14.01,2014-08-22 14:34:00,
2014-08-22 10:35:00,71.1,70.5,29.91,WSW,248,0.0,3.0,98,0.01,,---,0.01,0.00,VWS V14.01,2014-08-22 14:35:00,
2014-08-22 10:36:00,71.1,70.5,29.92,WSW,248,0.0,0.0,98,0.01,,---,0.01,0.00,VWS V14.01,2014-08-22 14:36:00,
2014-08-22 10:37:00,71.0,70.4,29.90,WSW,248,1.0,3.0,98,0.01,,---,0.01,0.00,VWS V14.01,2014-08-22 14:37:00,
2014-08-22 10:38:00,71.2,70.6,29.91,WSW,248,0.0,0.0,98,0.01,,---,0.01,0.00,VWS V14.01,2014-08-22 14:38:00,
2014-08-22 10:39:00,71.3,70.7,29.91,WSW,248,0.0,0.0,98,0.01,,---,0.01,0.00,VWS V14.01,2014-08-22 14:39:00,
2014-08-22 10:40:00,71.3,70.7,29.91,WSW,248,0.0,1.0,98,0.01,,---,0.01,0.00,VWS V14.01,2014-08-22 14:40:00,
2014-08-22 10:41:00,71.4,70.8,29.91,WSW,248,2.0,4.0,98,0.01,,---,0.01,0.00,VWS V14.01,2014-08-22 14:41:00,
2014-08-22 10:42:00,71.4,70.8,29.91,WSW,248,0.0,1.0,98,0.01,,---,0.01,0.00,VWS V14.01,2014-08-22 14:42:00,
2014-08-22 10:43:00,71.0,70.4,29.91,WSW,248,4.0,5.0,98,0.01,,---,0.01,0.00,VWS V14.01,2014-08-22 14:43:00,
2014-08-22 10:44:00,71.4,70.8,29.91,WSW,248,1.0,1.0,98,0.01,,---,0.01,0.00,VWS V14.01,2014-08-22 14:44:00,
2014-08-22 10:45:00,71.4,70.8,29.92,WSW,248,0.0,2.0,98,0.01,,---,0.01,0.00,VWS V14.01,2014-08-22 14:45:00,
2014-08-22 10:46:00,71.4,70.8,29.92,WSW,248,1.0,4.0,98,0.01,,---,0.01,0.00,VWS V14.01,2014-08-22 14:46:00,
2014-08-22 10:47:00,71.4,70.8,29.92,WSW,248,0.0,2.0,98,0.01,,---,0.01,0.00,VWS V14.01,2014-08-22 14:47:00,
2014-08-22 10:48:00,71.5,70.9,29.92,WSW,248,0.0,0.0,98,0.01,,---,0.01,0.00,VWS V14.01,2014-08-22 14:48:00,
2014-08-22 10:49:00,71.5,70.9,29.92,WSW,248,1.0,1.0,98,0.01,,---,0.01,0.00,VWS V14.01,2014-08-22 14:49:00,
2014-08-22 10:50:00,71.7,71.1,29.92,WSW,248,1.0,1.0,98,0.01,,---,0.01,0.00,VWS V14.01,2014-08-22 14:50:00,
2014-08-22 10:51:00,71.7,71.1,29.92,WSW,248,1.0,1.0,98,0.01,,---,0.01,0.00,VWS V14.01,2014-08-22 14:51:00,
2014-08-22 10:52:00,71.3,70.7,29.91,WSW,248,0.0,0.0,98,0.01,,---,0.01,0.00,VWS V14.01,2014-08-22 14:52:00,
2014-08-22 10:53:00,71.8,71.2,29.92,WSW,248,0.0,1.0,98,0.01,,---,0.01,0.00,VWS V14.01,2014-08-22 14:53:00,
2014-08-22 10:54:00,71.8,71.2,29.92,WSW,248,0.0,2.0,98,0.01,,---,0.01,0.00,VWS V14.01,2014-08-22 14:54:00,
2014-08-22 10:55:00,71.8,71.2,29.92,WSW,248,1.0,1.0,98,0.01,,---,0.01,0.00,VWS V14.01,2014-08-22 14:55:00,
2014-08-22 10:56:00,71.7,71.1,29.92,WSW,248,2.0,2.0,98,0.01,,---,0.01,0.00,VWS V14.01,2014-08-22 14:56:00,
2014-08-22 10:57:00,71.7,71.1,29.91,WSW,248,2.0,6.0,98,0.01,,---,0.01,0.00,VWS V14.01,2014-08-22 14:57:00,
2014-08-22 10:58:00,71.7,71.1,29.92,WSW,248,1.0,5.0,98,0.01,,---,0.01,0.00,VWS V14.01,2014-08-22 14:58:00,
2014-08-22 10:59:00,71.4,70.8,29.92,WSW,248,1.0,4.0,98,0.01,,---,0.01,0.00,VWS V14.01,2014-08-22 14:59:00,
2014-08-22 11:00:00,71.7,71.1,29.91,WSW,248,2.0,5.0,98,0.01,,---,0.01,0.00,VWS V14.01,2014-08-22 15:00:00,
2014-08-22 11:01:00,71.7,71.1,29.91,WSW,248,0.0,4.0,98,0.01,,---,0.01,0.00,VWS V14.01,2014-08-22 15:01:00,
2014-08-22 11:02:00,71.8,71.2,29.91,WSW,248,4.0,4.0,98,0.01,,---,0.01,0.00,VWS V14.01,2014-08-22 15:02:00,
2014-08-22 11:03:00,71.8,71.2,29.91,WSW,248,4.0,4.0,98,0.01,,---,0.01,0.00,VWS V14.01,2014-08-22 15:03:00,
2014-08-22 11:04:00,71.8,71.2,29.91,WSW,248,1.0,5.0,98,0.01,,---,0.01,0.00,VWS V14.01,2014-08-22 15:04:00,
2014-08-22 11:05:00,71.7,71.1,29.92,WSW,248,0.0,1.0,98,0.01,,---,0.01,0.00,VWS V14.01,2014-08-22 15:05:00,
2014-08-22 11:06:00,71.9,71.0,29.91,WSW,248,2.0,6.0,97,0.01,,---,0.01,0.00,VWS V14.01,2014-08-22 15:06:00,
2014-08-22 11:07:00,71.9,71.0,29.91,WSW,248,1.0,3.0,97,0.01,,---,0.01,0.00,VWS V14.01,2014-08-22 15:07:00,
2014-08-22 11:08:00,72.0,71.1,29.91,WSW,248,2.0,5.0,97,0.01,,---,0.01,0.00,VWS V14.01,2014-08-22 15:08:00,
2014-08-22 11:09:00,72.1,71.2,29.91,WSW,248,0.0,4.0,97,0.01,,---,0.01,0.00,VWS V14.01,2014-08-22 15:09:00,
2014-08-22 11:10:00,72.3,71.4,29.91,WSW,248,0.0,1.0,97,0.01,,---,0.01,0.00,VWS V14.01,2014-08-22 15:10:00,
2014-08-22 11:11:00,72.4,71.5,29.91,WSW,248,0.0,1.0,97,0.01,,---,0.01,0.00,VWS V14.01,2014-08-22 15:11:00,
2014-08-22 11:12:00,72.5,71.9,29.90,WSW,248,5.0,5.0,98,0.01,,---,0.01,0.00,VWS V14.01,2014-08-22 15:12:00,
2014-08-22 11:13:00,71.7,71.1,29.91,WSW,248,5.0,5.0,98,0.01,,---,0.01,0.00,VWS V14.01,2014-08-22 15:13:00,
2014-08-22 11:14:00,71.7,71.1,29.91,WSW,248,0.0,4.0,98,0.01,,---,0.01,0.00,VWS V14.01,2014-08-22 15:14:00,
2014-08-22 11:15:00,72.5,71.6,29.90,WSW,248,0.0,4.0,97,0.00,,---,0.01,0.00,VWS V14.01,2014-08-22 15:15:00,
2014-08-22 11:16:00,72.6,71.7,29.90,WSW,248,0.0,0.0,97,0.00,,---,0.01,0.00,VWS V14.01,2014-08-22 15:16:00,
2014-08-22 11:17:00,72.7,71.8,29.90,WSW,248,0.0,0.0,97,0.00,,---,0.01,0.00,VWS V14.01,2014-08-22 15:17:00,
2014-08-22 11:18:00,72.8,71.9,29.90,WSW,248,0.0,1.0,97,0.00,,---,0.01,0.00,VWS V14.01,2014-08-22 15:18:00,
2014-08-22 11:19:00,72.9,72.0,29.90,WSW,248,5.0,6.0,97,0.00,,---,0.01,0.00,VWS V14.01,2014-08-22 15:19:00,
2014-08-22 11:20:00,72.9,72.0,29.90,WSW,248,0.0,1.0,97,0.00,,---,0.01,0.00,VWS V14.01,2014-08-22 15:20:00,
2014-08-22 11:21:00,73.0,72.1,29.90,WSW,248,0.0,6.0,97,0.00,,---,0.01,0.00,VWS V14.01,2014-08-22 15:21:00,
2014-08-22 11:22:00,73.0,72.1,29.90,WSW,248,0.0,1.0,97,0.00,,---,0.01,0.00,VWS V14.01,2014-08-22 15:22:00,
2014-08-22 11:23:00,73.0,72.1,29.90,WSW,248,0.0,6.0,97,0.00,,---,0.01,0.00,VWS V14.01,2014-08-22 15:23:00,
2014-08-22 11:24:00,73.0,72.1,29.90,WSW,248,5.0,5.0,97,0.00,,---,0.01,0.00,VWS V14.01,2014-08-22 15:24:00,
2014-08-22 11:25:00,72.5,71.9,29.90,WSW,248,0.0,1.0,98,0.01,,---,0.01,0.00,VWS V14.01,2014-08-22 15:25:00,
2014-08-22 11:26:00,73.3,72.4,29.90,WSW,248,0.0,1.0,97,0.00,,---,0.01,0.00,VWS V14.01,2014-08-22 15:26:00,
2014-08-22 11:27:00,73.4,72.5,29.90,WSW,248,3.0,4.0,97,0.00,,---,0.01,0.00,VWS V14.01,2014-08-22 15:27:00,
2014-08-22 11:28:00,72.5,71.6,29.90,WSW,248,0.0,4.0,97,0.00,,---,0.01,0.00,VWS V14.01,2014-08-22 15:28:00,
2014-08-22 11:29:00,72.6,71.7,29.90,WSW,248,0.0,0.0,97,0.00,,---,0.01,0.00,VWS V14.01,2014-08-22 15:29:00,
2014-08-22 11:30:00,73.7,72.5,29.90,WSW,248,0.0,1.0,96,0.00,,---,0.01,0.00,VWS V14.01,2014-08-22 15:30:00,
2014-08-22 11:31:00,73.9,72.7,29.90,WSW,248,0.0,1.0,96,0.00,,---,0.01,0.00,VWS V14.01,2014-08-22 15:31:00,
2014-08-22 11:32:00,74.0,72.8,29.90,WSW,248,1.0,7.0,96,0.00,,---,0.01,0.00,VWS V14.01,2014-08-22 15:32:00,
2014-08-22 11:33:00,74.1,72.9,29.90,WSW,250,6.0,9.0,96,0.00,,---,0.01,0.00,VWS V14.01,2014-08-22 15:33:00,
2014-08-22 11:34:00,73.0,72.1,29.90,WSW,248,6.0,6.0,97,0.00,,---,0.01,0.00,VWS V14.01,2014-08-22 15:34:00,
2014-08-22 11:35:00,74.2,72.7,29.90,WSW,250,0.0,3.0,95,0.00,,---,0.01,0.00,VWS V14.01,2014-08-22 15:35:00,
2014-08-22 11:36:00,74.5,73.0,29.90,WSW,250,5.0,6.0,95,0.00,,---,0.01,0.00,VWS V14.01,2014-08-22 15:36:00,
2014-08-22 11:37:00,74.5,73.0,29.90,WSW,251,0.0,8.0,95,0.00,,---,0.01,0.00,VWS V14.01,2014-08-22 15:37:00,
2014-08-22 11:38:00,74.7,72.9,29.90,WSW,251,0.0,0.0,94,0.00,,---,0.01,0.00,VWS V14.01,2014-08-22 15:38:00,
2014-08-22 11:39:00,74.7,72.9,29.91,WSW,251,0.0,5.0,94,0.00,,---,0.01,0.00,VWS V14.01,2014-08-22 15:39:00,
2014-08-22 11:40:00,74.9,73.1,29.91,WSW,251,0.0,2.0,94,0.00,,---,0.01,0.00,VWS V14.01,2014-08-22 15:40:00,
2014-08-22 11:41:00,75.1,73.3,29.91,WSW,251,4.0,4.0,94,0.00,,---,0.01,0.00,VWS V14.01,2014-08-22 15:41:00,
2014-08-22 11:42:00,75.1,73.3,29.91,WSW,251,1.0,5.0,94,0.00,,---,0.01,0.00,VWS V14.01,2014-08-22 15:42:00,
2014-08-22 11:43:00,75.3,73.1,29.91,WSW,251,3.0,3.0,93,0.00,,---,0.01,0.00,VWS V14.01,2014-08-22 15:43:00,
2014-08-22 11:44:00,75.3,73.1,29.91,WSW,254,0.0,7.0,93,0.00,,---,0.01,0.00,VWS V14.01,2014-08-22 15:44:00,
2014-08-22 11:45:00,75.4,73.2,29.91,WSW,254,0.0,1.0,93,0.00,,---,0.01,0.00,VWS V14.01,2014-08-22 15:45:00,
2014-08-22 11:46:00,74.1,72.9,29.90,WSW,250,5.0,9.0,96,0.00,,---,0.01,0.00,VWS V14.01,2014-08-22 15:46:00,
2014-08-22 11:47:00,75.7,73.5,29.91,WSW,254,1.0,6.0,93,0.00,,---,0.01,0.00,VWS V14.01,2014-08-22 15:47:00,
2014-08-22 11:48:00,75.7,73.2,29.92,WSW,254,0.0,1.0,92,0.00,,---,0.01,0.00,VWS V14.01,2014-08-22 15:48:00,
2014-08-22 11:49:00,75.9,73.4,29.92,West,265,0.0,8.0,92,0.00,,---,0.01,0.00,VWS V14.01,2014-08-22 15:49:00,
2014-08-22 11:50:00,76.0,73.2,29.92,West,265,0.0,4.0,91,0.00,,---,0.01,0.00,VWS V14.01,2014-08-22 15:50:00,
2014-08-22 11:51:00,76.0,73.2,29.91,West,265,5.0,5.0,91,0.00,,---,0.01,0.00,VWS V14.01,2014-08-22 15:51:00,
2014-08-22 11:52:00,76.1,73.0,29.91,West,265,5.0,5.0,90,0.00,,---,0.01,0.00,VWS V14.01,2014-08-22 15:52:00,
2014-08-22 11:53:00,74.9,73.1,29.91,WSW,251,0.0,2.0,94,0.00,,---,0.01,0.00,VWS V14.01,2014-08-22 15:53:00,
2014-08-22 11:54:00,76.1,73.0,29.91,West,265,1.0,7.0,90,0.00,,---,0.01,0.00,VWS V14.01,2014-08-22 15:54:00,
2014-08-22 11:55:00,76.2,73.1,29.92,West,265,0.0,4.0,90,0.00,,---,0.01,0.00,VWS V14.01,2014-08-22 15:55:00,
2014-08-22 11:56:00,76.3,73.2,29.91,West,265,0.0,3.0,90,0.00,,---,0.01,0.00,VWS V14.01,2014-08-22 15:56:00,
2014-08-22 11:57:00,76.4,73.2,29.91,West,265,5.0,7.0,90,0.00,,---,0.01,0.00,VWS V14.01,2014-08-22 15:57:00,
2014-08-22 11:58:00,76.4,73.2,29.92,West,265,4.0,5.0,90,0.00,,---,0.01,0.00,VWS V14.01,2014-08-22 15:58:00,
2014-08-22 11:59:00,76.5,73.0,29.92,West,265,4.0,8.0,89,0.00,,---,0.01,0.00,VWS V14.01,2014-08-22 15:59:00,
2014-08-22 12:00:00,75.7,73.5,29.91,WSW,254,1.0,6.0,93,0.00,,---,0.01,0.00,VWS V14.01,2014-08-22 16:00:00,
2014-08-22 12:01:00,76.6,73.1,29.92,West,265,1.0,1.0,89,0.00,,---,0.01,0.00,VWS V14.01,2014-08-22 16:01:00,
2014-08-22 12:02:00,76.7,73.2,29.92,West,265,1.0,2.0,89,0.00,,---,0.01,0.00,VWS V14.01,2014-08-22 16:02:00,
2014-08-22 12:03:00,76.0,73.2,29.92,West,265,0.0,5.0,91,0.00,,---,0.01,0.00,VWS V14.01,2014-08-22 16:03:00,
2014-08-22 12:04:00,76.8,73.3,29.92,West,265,0.0,6.0,89,0.00,,---,0.01,0.00,VWS V14.01,2014-08-22 16:04:00,
2014-08-22 12:05:00,76.9,73.4,29.92,West,265,0.0,2.0,89,0.00,,---,0.01,0.00,VWS V14.01,2014-08-22 16:05:00,
2014-08-22 12:06:00,76.1,73.0,29.92,West,265,4.0,6.0,90,0.00,,---,0.01,0.00,VWS V14.01,2014-08-22 16:06:00,
2014-08-22 12:07:00,77.0,73.5,29.92,West,265,1.0,4.0,89,0.00,,---,0.01,0.00,VWS V14.01,2014-08-22 16:07:00,
2014-08-22 12:08:00,77.1,73.6,29.92,West,265,1.0,4.0,89,0.00,,---,0.01,0.00,VWS V14.01,2014-08-22 16:08:00,
2014-08-22 12:09:00,77.1,73.6,29.92,West,265,4.0,5.0,89,0.00,,---,0.01,0.00,VWS V14.01,2014-08-22 16:09:00,
2014-08-22 12:10:00,77.2,73.4,29.92,West,266,5.0,6.0,88,0.00,,---,0.01,0.00,VWS V14.01,2014-08-22 16:10:00,
2014-08-22 12:11:00,77.3,73.5,29.92,West,266,0.0,1.0,88,0.00,,---,0.01,0.00,VWS V14.01,2014-08-22 16:11:00,
2014-08-22 12:12:00,77.4,73.6,29.92,West,267,0.0,5.0,88,0.00,,---,0.01,0.00,VWS V14.01,2014-08-22 16:12:00,
2014-08-22 12:13:00,77.4,73.6,29.92,West,267,1.0,5.0,88,0.00,,---,0.01,0.00,VWS V14.01,2014-08-22 16:13:00,
2014-08-22 12:14:00,77.4,73.6,29.92,West,267,1.0,4.0,88,0.00,,---,0.01,0.00,VWS V14.01,2014-08-22 16:14:00,
2014-08-22 12:15:00,76.7,73.2,29.92,West,265,2.0,2.0,89,0.00,,---,0.01,0.00,VWS V14.01,2014-08-22 16:15:00,
2014-08-22 12:16:00,77.5,73.3,29.92,NNW,328,0.0,5.0,87,0.00,,---,0.01,0.00,VWS V14.01,2014-08-22 16:16:00,
2014-08-22 12:17:00,77.6,73.4,29.92,NNW,328,0.0,1.0,87,0.00,,---,0.01,0.00,VWS V14.01,2014-08-22 16:17:00,
2014-08-22 12:18:00,77.7,73.9,29.92,NNW,329,1.0,8.0,88,0.00,,---,0.01,0.00,VWS V14.01,2014-08-22 16:18:00,
2014-08-22 12:19:00,77.7,73.5,29.92,NNW,329,0.0,4.0,87,0.00,,---,0.01,0.00,VWS V14.01,2014-08-22 16:19:00,
2014-08-22 12:20:00,77.8,73.6,29.92,NNW,329,0.0,2.0,87,0.00,,---,0.01,0.00,VWS V14.01,2014-08-22 16:20:00,
2014-08-22 12:21:00,77.1,73.6,29.92,West,265,4.0,4.0,89,0.00,,---,0.01,0.00,VWS V14.01,2014-08-22 16:21:00,
2014-08-22 12:22:00,77.9,73.7,29.92,NNW,329,0.0,4.0,87,0.00,,---,0.01,0.00,VWS V14.01,2014-08-22 16:22:00,
2014-08-22 12:23:00,78.0,73.8,29.92,NNW,329,4.0,6.0,87,0.00,,---,0.01,0.00,VWS V14.01,2014-08-22 16:23:00,
2014-08-22 12:24:00,78.0,73.5,29.92,NNW,329,3.0,6.0,86,0.00,,---,0.01,0.00,VWS V14.01,2014-08-22 16:24:00,
2014-08-22 12:25:00,77.3,73.5,29.92,West,267,0.0,6.0,88,0.00,,---,0.01,0.00,VWS V14.01,2014-08-22 16:25:00,
2014-08-22 12:26:00,78.1,73.9,29.92,NNW,329,0.0,4.0,87,0.00,,---,0.01,0.00,VWS V14.01,2014-08-22 16:26:00,
2014-08-22 12:27:00,78.2,74.0,29.92,NNW,329,0.0,0.0,87,0.00,,---,0.01,0.00,VWS V14.01,2014-08-22 16:27:00,
2014-08-22 12:28:00,77.5,73.7,29.92,NNW,328,7.0,9.0,88,0.00,,---,0.01,0.00,VWS V14.01,2014-08-22 16:28:00,
2014-08-22 12:29:00,78.3,74.1,29.92,NNW,329,3.0,3.0,87,0.00,,---,0.01,0.00,VWS V14.01,2014-08-22 16:29:00,
2014-08-22 12:30:00,77.6,73.4,29.92,NNW,328,0.0,1.0,87,0.00,,---,0.01,0.00,VWS V14.01,2014-08-22 16:30:00,
2014-08-22 12:31:00,78.4,74.2,29.92,NNW,329,5.0,5.0,87,0.00,,---,0.01,0.00,VWS V14.01,2014-08-22 16:31:00,
2014-08-22 12:32:00,78.4,73.9,29.92,NNW,329,1.0,4.0,86,0.00,,---,0.01,0.00,VWS V14.01,2014-08-22 16:32:00,
2014-08-22 12:33:00,78.5,74.0,29.92,NNW,329,0.0,1.0,86,0.00,,---,0.01,0.00,VWS V14.01,2014-08-22 16:33:00,
2014-08-22 12:34:00,78.5,74.3,29.92,NNW,329,1.0,2.0,87,0.00,,---,0.01,0.00,VWS V14.01,2014-08-22 16:34:00,
2014-08-22 12:35:00,78.5,74.0,29.92,NNW,329,1.0,2.0,86,0.00,,---,0.01,0.00,VWS V14.01,2014-08-22 16:35:00,
2014-08-22 12:36:00,78.6,74.1,29.92,NNW,329,0.0,2.0,86,0.00,,---,0.01,0.00,VWS V14.01,2014-08-22 16:36:00,
2014-08-22 12:37:00,78.0,73.5,29.92,NNW,329,1.0,5.0,86,0.00,,---,0.01,0.00,VWS V14.01,2014-08-22 16:37:00,
2014-08-22 12:38:00,78.7,74.2,29.92,NNW,329,0.0,5.0,86,0.00,,---,0.01,0.00,VWS V14.01,2014-08-22 16:38:00,
2014-08-22 12:39:00,78.1,73.9,29.92,NNW,329,2.0,4.0,87,0.00,,---,0.01,0.00,VWS V14.01,2014-08-22 16:39:00,
2014-08-22 12:40:00,78.8,73.9,29.92,NNW,333,2.0,7.0,85,0.00,,---,0.01,0.00,VWS V14.01,2014-08-22 16:40:00,
2014-08-22 12:41:00,78.8,73.9,29.91,NNW,333,1.0,6.0,85,0.00,,---,0.01,0.00,VWS V14.01,2014-08-22 16:41:00,
2014-08-22 12:42:00,78.8,73.9,29.91,NNW,333,1.0,5.0,85,0.00,,---,0.01,0.00,VWS V14.01,2014-08-22 16:42:00,
2014-08-22 12:43:00,78.9,74.0,29.91,NNW,333,3.0,5.0,85,0.00,,---,0.01,0.00,VWS V14.01,2014-08-22 16:43:00,
2014-08-22 12:44:00,78.4,73.9,29.92,NNW,329,1.0,1.0,86,0.00,,---,0.01,0.00,VWS V14.01,2014-08-22 16:44:00,
2014-08-22 12:45:00,78.9,74.0,29.91,NNW,342,1.0,6.0,85,0.00,,---,0.01,0.00,VWS V14.01,2014-08-22 16:45:00,
2014-08-22 12:46:00,79.0,74.1,29.91,NNW,342,5.0,5.0,85,0.00,,---,0.01,0.00,VWS V14.01,2014-08-22 16:46:00,
2014-08-22 12:47:00,78.5,74.3,29.92,NNW,329,1.0,2.0,87,0.00,,---,0.01,0.00,VWS V14.01,2014-08-22 16:47:00,
2014-08-22 12:48:00,79.1,74.2,29.92,NNW,342,1.0,4.0,85,0.00,,---,0.01,0.00,VWS V14.01,2014-08-22 16:48:00,
2014-08-22 12:49:00,79.1,74.2,29.92,NNW,342,0.0,6.0,85,0.00,,---,0.01,0.00,VWS V14.01,2014-08-22 16:49:00,
2014-08-22 12:50:00,79.2,74.3,29.92,NNW,342,0.0,1.0,85,0.00,,---,0.01,0.00,VWS V14.01,2014-08-22 16:50:00,
2014-08-22 12:51:00,79.2,74.3,29.91,NNW,342,0.0,4.0,85,0.00,,---,0.01,0.00,VWS V14.01,2014-08-22 16:51:00,
2014-08-22 12:52:00,79.2,74.3,29.91,NNW,342,0.0,5.0,85,0.00,,---,0.01,0.00,VWS V14.01,2014-08-22 16:52:00,
2014-08-22 12:53:00,79.2,73.9,29.91,NNW,342,0.0,1.0,84,0.00,,---,0.01,0.00,VWS V14.01,2014-08-22 16:53:00,
2014-08-22 12:54:00,79.2,74.3,29.91,NNW,342,3.0,3.0,85,0.00,,---,0.01,0.00,VWS V14.01,2014-08-22 16:54:00,
2014-08-22 12:55:00,78.8,73.9,29.91,NNW,333,2.0,5.0,85,0.00,,---,0.01,0.00,VWS V14.01,2014-08-22 16:55:00,
2014-08-22 12:56:00,79.3,74.1,29.91,NNW,342,0.0,5.0,84,0.00,,---,0.01,0.00,VWS V14.01,2014-08-22 16:56:00,
2014-08-22 12:57:00,79.3,74.4,29.92,NNW,342,0.0,1.0,85,0.00,,---,0.01,0.00,VWS V14.01,2014-08-22 16:57:00,
2014-08-22 12:58:00,79.4,74.5,29.92,NNW,342,0.0,1.0,85,0.00,,---,0.01,0.00,VWS V14.01,2014-08-22 16:58:00,
2014-08-22 12:59:00,79.4,74.5,29.92,NNW,342,0.0,3.0,85,0.00,,---,0.01,0.00,VWS V14.01,2014-08-22 16:59:00,
2014-08-22 13:00:00,79.5,74.6,29.91,NNW,342,1.0,3.0,85,0.00,,---,0.01,0.00,VWS V14.01,2014-08-22 17:00:00,
2014-08-22 13:01:00,79.1,73.8,29.92,NNW,342,0.0,4.0,84,0.00,,---,0.01,0.00,VWS V14.01,2014-08-22 17:01:00,
2014-08-22 13:02:00,79.6,74.7,29.91,NNW,342,2.0,2.0,85,0.00,,---,0.01,0.00,VWS V14.01,2014-08-22 17:02:00,
2014-08-22 13:03:00,79.6,74.3,29.92,NNW,342,2.0,5.0,84,0.00,,---,0.01,0.00,VWS V14.01,2014-08-22 17:03:00,
2014-08-22 13:04:00,79.6,74.3,29.92,NNW,342,0.0,1.0,84,0.00,,---,0.01,0.00,VWS V14.01,2014-08-22 17:04:00,
2014-08-22 13:05:00,79.6,74.3,29.92,NNW,342,0.0,2.0,84,0.00,,---,0.01,0.00,VWS V14.01,2014-08-22 17:05:00,
2014-08-22 13:06:00,79.7,74.4,29.92,NNW,342,0.0,1.0,84,0.00,,---,0.01,0.00,VWS V14.01,2014-08-22 17:06:00,
2014-08-22 13:07:00,79.8,74.9,29.92,NNW,342,1.0,1.0,85,0.00,,---,0.01,0.00,VWS V14.01,2014-08-22 17:07:00,
2014-08-22 13:08:00,79.8,74.5,29.91,NNW,342,0.0,2.0,84,0.00,,---,0.01,0.00,VWS V14.01,2014-08-22 17:08:00,
2014-08-22 13:09:00,79.9,75.0,29.91,NNW,333,1.0,7.0,85,0.00,,---,0.01,0.00,VWS V14.01,2014-08-22 17:09:00,
2014-08-22 13:10:00,80.0,74.7,29.91,NNW,333,0.0,3.0,84,0.00,,---,0.01,0.00,VWS V14.01,2014-08-22 17:10:00,
2014-08-22 13:11:00,80.0,74.4,29.91,NNW,333,1.0,3.0,83,0.00,,---,0.01,0.00,VWS V14.01,2014-08-22 17:11:00,
2014-08-22 13:12:00,80.0,74.7,29.91,NNW,333,2.0,4.0,84,0.00,,---,0.01,0.00,VWS V14.01,2014-08-22 17:12:00,
2014-08-22 13:13:00,80.0,74.4,29.91,NNW,336,1.0,4.0,83,0.00,,---,0.01,0.00,VWS V14.01,2014-08-22 17:13:00,
2014-08-22 13:14:00,79.5,74.6,29.92,NNW,342,0.0,2.0,85,0.00,,---,0.01,0.00,VWS V14.01,2014-08-22 17:14:00,
2014-08-22 13:15:00,80.0,74.4,29.91,NNW,336,1.0,4.0,83,0.00,,---,0.01,0.00,VWS V14.01,2014-08-22 17:15:00,
2014-08-22 13:16:00,79.9,74.3,29.91,NNW,336,0.0,1.0,83,0.00,,---,0.01,0.00,VWS V14.01,2014-08-22 17:16:00,
2014-08-22 13:17:00,79.9,74.3,29.91,NNW,336,0.0,0.0,83,0.00,,---,0.01,0.00,VWS V14.01,2014-08-22 17:17:00,
2014-08-22 13:18:00,80.0,74.4,29.91,NNW,336,2.0,2.0,83,0.00,,---,0.01,0.00,VWS V14.01,2014-08-22 17:18:00,
2014-08-22 13:19:00,79.9,74.3,29.91,NNW,337,4.0,7.0,83,0.00,,---,0.01,0.00,VWS V14.01,2014-08-22 17:19:00,
2014-08-22 13:20:00,80.0,74.4,29.91,NNW,337,1.0,1.0,83,0.00,,---,0.01,0.00,VWS V14.01,2014-08-22 17:20:00,
2014-08-22 13:21:00,79.8,74.5,29.91,NNW,342,0.0,2.0,84,0.00,,---,0.01,0.00,VWS V14.01,2014-08-22 17:21:00,
2014-08-22 13:22:00,80.0,74.4,29.90,NNW,337,1.0,2.0,83,0.00,,---,0.01,0.00,VWS V14.01,2014-08-22 17:22:00,
2014-08-22 13:23:00,80.0,74.7,29.90,NNW,336,0.0,5.0,84,0.00,,---,0.01,0.00,VWS V14.01,2014-08-22 17:23:00,
2014-08-22 13:24:00,80.1,74.1,29.90,NNW,336,0.0,1.0,82,0.00,,---,0.01,0.00,VWS V14.01,2014-08-22 17:24:00,
2014-08-22 13:25:00,80.1,74.5,29.90,NNW,336,5.0,5.0,83,0.00,,---,0.01,0.00,VWS V14.01,2014-08-22 17:25:00,
2014-08-22 13:26:00,80.3,74.7,29.90,NNW,336,1.0,4.0,83,0.00,,---,0.01,0.00,VWS V14.01,2014-08-22 17:26:00,
2014-08-22 13:27:00,80.0,74.4,29.91,NNW,337,0.0,5.0,83,0.00,,---,0.01,0.00,VWS V14.01,2014-08-22 17:27:00,
2014-08-22 13:28:00,80.5,74.5,29.90,NNW,336,1.0,2.0,82,0.00,,---,0.01,0.00,VWS V14.01,2014-08-22 17:28:00,
2014-08-22 13:29:00,80.6,75.0,29.90,NNW,336,1.0,2.0,83,0.00,,---,0.01,0.00,VWS V14.01,2014-08-22 17:29:00,
2014-08-22 13:30:00,80.7,74.3,29.90,NNW,336,1.0,6.0,81,0.00,,---,0.01,0.00,VWS V14.01,2014-08-22 17:30:00,
2014-08-22 13:31:00,80.7,74.3,29.90,NNW,336,0.0,1.0,81,0.00,,---,0.01,0.00,VWS V14.01,2014-08-22 17:31:00,
2014-08-22 13:32:00,79.9,74.3,29.91,NNW,337,6.0,7.0,83,0.00,,---,0.01,0.00,VWS V14.01,2014-08-22 17:32:00,
2014-08-22 13:33:00,80.9,74.5,29.90,NNW,336,0.0,5.0,81,0.00,,---,0.01,0.00,VWS V14.01,2014-08-22 17:33:00,
2014-08-22 13:34:00,80.9,74.5,29.90,NNW,336,0.0,1.0,81,0.00,,---,0.01,0.00,VWS V14.01,2014-08-22 17:34:00,
2014-08-22 13:35:00,80.9,74.9,29.90,NNW,336,5.0,5.0,82,0.00,,---,0.01,0.00,VWS V14.01,2014-08-22 17:35:00,
2014-08-22 13:36:00,80.8,74.4,29.90,NNW,336,0.0,6.0,81,0.00,,---,0.01,0.00,VWS V14.01,2014-08-22 17:36:00,
2014-08-22 13:37:00,80.7,74.3,29.90,NNW,336,0.0,4.0,81,0.00,,---,0.01,0.00,VWS V14.01,2014-08-22 17:37:00,
2014-08-22 13:38:00,80.1,74.5,29.90,NNW,336,4.0,4.0,83,0.00,,---,0.01,0.00,VWS V14.01,2014-08-22 17:38:00,
2014-08-22 13:39:00,80.7,74.7,29.91,NNW,336,1.0,5.0,82,0.00,,---,0.01,0.00,VWS V14.01,2014-08-22 17:39:00,
2014-08-22 13:40:00,80.6,74.6,29.91,NNW,336,2.0,5.0,82,0.00,,---,0.01,0.00,VWS V14.01,2014-08-22 17:40:00,
2014-08-22 13:41:00,80.5,74.5,29.90,NNW,336,0.0,1.0,82,0.00,,---,0.01,0.00,VWS V14.01,2014-08-22 17:41:00,
2014-08-22 13:42:00,80.5,74.1,29.91,NNW,336,8.0,8.0,81,0.00,,---,0.01,0.00,VWS V14.01,2014-08-22 17:42:00,
2014-08-22 13:43:00,80.4,74.0,29.91,NNW,336,3.0,8.0,81,0.00,,---,0.01,0.00,VWS V14.01,2014-08-22 17:43:00,
2014-08-22 13:44:00,80.4,74.0,29.91,NNW,336,0.0,0.0,81,0.00,,---,0.01,0.00,VWS V14.01,2014-08-22 17:44:00,
2014-08-22 13:45:00,80.3,74.3,29.90,NNW,336,0.0,2.0,82,0.00,,---,0.01,0.00,VWS V14.01,2014-08-22 17:45:00,
2014-08-22 13:46:00,80.8,74.4,29.90,NNW,336,1.0,5.0,81,0.00,,---,0.01,0.00,VWS V14.01,2014-08-22 17:46:00,
2014-08-22 13:47:00,80.2,74.2,29.90,NNW,336,1.0,8.0,82,0.00,,---,0.01,0.00,VWS V14.01,2014-08-22 17:47:00,
2014-08-22 13:48:00,80.9,74.9,29.90,NNW,336,0.0,1.0,82,0.00,,---,0.01,0.00,VWS V14.01,2014-08-22 17:48:00,
2014-08-22 13:49:00,80.1,74.1,29.90,NNW,333,0.0,5.0,82,0.00,,---,0.01,0.00,VWS V14.01,2014-08-22 17:49:00,
2014-08-22 13:50:00,80.1,74.5,29.90,NNW,333,0.0,1.0,83,0.00,,---,0.01,0.00,VWS V14.01,2014-08-22 17:50:00,
2014-08-22 13:51:00,80.0,74.4,29.90,NNW,335,6.0,6.0,83,0.00,,---,0.01,0.00,VWS V14.01,2014-08-22 17:51:00,
2014-08-22 13:52:00,80.0,74.0,29.91,NNW,335,0.0,6.0,82,0.00,,---,0.01,0.00,VWS V14.01,2014-08-22 17:52:00,
2014-08-22 13:53:00,80.7,74.7,29.91,NNW,336,5.0,5.0,82,0.00,,---,0.01,0.00,VWS V14.01,2014-08-22 17:53:00,
2014-08-22 13:54:00,79.9,74.3,29.91,NNW,335,0.0,2.0,83,0.00,,---,0.01,0.00,VWS V14.01,2014-08-22 17:54:00,
2014-08-22 13:55:00,80.5,74.1,29.91,NNW,336,0.0,5.0,81,0.00,,---,0.01,0.00,VWS V14.01,2014-08-22 17:55:00,
2014-08-22 13:56:00,79.8,74.2,29.91,NNW,335,0.0,6.0,83,0.00,,---,0.01,0.00,VWS V14.01,2014-08-22 17:56:00,
2014-08-22 13:57:00,79.8,74.2,29.91,NNW,335,1.0,1.0,83,0.00,,---,0.01,0.00,VWS V14.01,2014-08-22 17:57:00,
2014-08-22 13:58:00,79.7,74.1,29.91,NNW,335,0.0,2.0,83,0.00,,---,0.01,0.00,VWS V14.01,2014-08-22 17:58:00,
2014-08-22 13:59:00,79.7,74.1,29.91,NNW,335,0.0,1.0,83,0.00,,---,0.01,0.00,VWS V14.01,2014-08-22 17:59:00,
2014-08-22 14:00:00,79.7,74.1,29.91,NNW,335,0.0,1.0,83,0.00,,---,0.01,0.00,VWS V14.01,2014-08-22 18:00:00,
2014-08-22 14:01:00,79.6,74.0,29.91,NNW,335,0.0,1.0,83,0.00,,---,0.01,0.00,VWS V14.01,2014-08-22 18:01:00,
2014-08-22 14:02:00,79.6,74.3,29.91,NNW,335,0.0,1.0,84,0.00,,---,0.01,0.00,VWS V14.01,2014-08-22 18:02:00,
2014-08-22 14:03:00,79.6,74.3,29.91,NNW,335,1.0,1.0,84,0.00,,---,0.01,0.00,VWS V14.01,2014-08-22 18:03:00,
2014-08-22 14:04:00,80.0,74.4,29.90,NNW,335,4.0,6.0,83,0.00,,---,0.01,0.00,VWS V14.01,2014-08-22 18:04:00,
2014-08-22 14:05:00,79.5,73.9,29.91,NNW,329,0.0,8.0,83,0.00,,---,0.01,0.00,VWS V14.01,2014-08-22 18:05:00,
2014-08-22 14:06:00,79.5,74.2,29.91,NNW,329,6.0,6.0,84,0.00,,---,0.01,0.00,VWS V14.01,2014-08-22 18:06:00,
2014-08-22 14:07:00,79.5,74.2,29.91,NNW,329,0.0,6.0,84,0.00,,---,0.01,0.00,VWS V14.01,2014-08-22 18:07:00,
2014-08-22 14:08:00,79.5,74.2,29.91,NNW,329,0.0,1.0,84,0.00,,---,0.01,0.00,VWS V14.01,2014-08-22 18:08:00,
2014-08-22 14:09:00,79.6,74.3,29.91,NNW,329,1.0,4.0,84,0.00,,---,0.01,0.00,VWS V14.01,2014-08-22 18:09:00,
2014-08-22 14:10:00,79.6,74.3,29.91,NW,317,7.0,9.0,84,0.00,,---,0.01,0.00,VWS V14.01,2014-08-22 18:10:00,
2014-08-22 14:11:00,79.6,74.3,29.91,NW,315,5.0,5.0,84,0.00,,---,0.01,0.00,VWS V14.01,2014-08-22 18:11:00,
2014-08-22 14:12:00,79.7,74.4,29.91,NW,311,0.0,8.0,84,0.00,,---,0.01,0.00,VWS V14.01,2014-08-22 18:12:00,
2014-08-22 14:13:00,79.7,74.4,29.91,NW,311,0.0,2.0,84,0.00,,---,0.01,0.00,VWS V14.01,2014-08-22 18:13:00,
2014-08-22 14:14:00,79.7,74.4,29.91,NW,311,0.0,1.0,84,0.00,,---,0.01,0.00,VWS V14.01,2014-08-22 18:14:00,
2014-08-22 14:15:00,79.7,74.4,29.91,NW,311,0.0,1.0,84,0.00,,---,0.01,0.00,VWS V14.01,2014-08-22 18:15:00,
2014-08-22 14:16:00,79.6,74.3,29.91,NNW,335,1.0,1.0,84,0.00,,---,0.01,0.00,VWS V14.01,2014-08-22 18:16:00,
2014-08-22 14:17:00,79.7,74.4,29.92,NW,313,1.0,4.0,84,0.00,,---,0.01,0.00,VWS V14.01,2014-08-22 18:17:00,
2014-08-22 14:18:00,79.8,74.5,29.91,NW,313,6.0,6.0,84,0.00,,---,0.01,0.00,VWS V14.01,2014-08-22 18:18:00,
2014-08-22 14:19:00,79.8,74.5,29.91,NW,315,0.0,6.0,84,0.00,,---,0.01,0.00,VWS V14.01,2014-08-22 18:19:00,
2014-08-22 14:20:00,79.8,74.5,29.92,NW,315,0.0,1.0,84,0.00,,---,0.01,0.00,VWS V14.01,2014-08-22 18:20:00,
2014-08-22 14:21:00,79.8,74.5,29.91,NW,315,0.0,5.0,84,0.00,,---,0.01,0.00,VWS V14.01,2014-08-22 18:21:00,
2014-08-22 14:22:00,79.6,74.3,29.91,NNW,329,1.0,4.0,84,0.00,,---,0.01,0.00,VWS V14.01,2014-08-22 18:22:00,
2014-08-22 14:23:00,79.9,74.6,29.91,NW,315,1.0,1.0,84,0.00,,---,0.01,0.00,VWS V14.01,2014-08-22 18:23:00,
2014-08-22 14:24:00,79.9,74.6,29.91,NW,315,1.0,6.0,84,0.00,,---,0.01,0.00,VWS V14.01,2014-08-22 18:24:00,
2014-08-22 14:25:00,80.0,74.7,29.91,NW,315,0.0,5.0,84,0.00,,---,0.01,0.00,VWS V14.01,2014-08-22 18:25:00,
2014-08-22 14:26:00,80.0,74.7,29.91,NW,315,6.0,6.0,84,0.00,,---,0.01,0.00,VWS V14.01,2014-08-22 18:26:00,
2014-08-22 14:27:00,79.7,74.4,29.91,NW,311,0.0,1.0,84,0.00,,---,0.01,0.00,VWS V14.01,2014-08-22 18:27:00,
2014-08-22 14:28:00,79.7,74.4,29.91,NW,311,0.0,1.0,84,0.00,,---,0.01,0.00,VWS V14.01,2014-08-22 18:28:00,
2014-08-22 14:29:00,80.2,74.6,29.91,NW,315,1.0,6.0,83,0.00,,---,0.01,0.00,VWS V14.01,2014-08-22 18:29:00,
2014-08-22 14:30:00,80.2,74.6,29.91,NW,315,0.0,0.0,83,0.00,,---,0.01,0.00,VWS V14.01,2014-08-22 18:30:00,
2014-08-22 14:31:00,80.3,74.7,29.91,NW,315,1.0,2.0,83,0.00,,---,0.01,0.00,VWS V14.01,2014-08-22 18:31:00,
2014-08-22 14:32:00,80.4,74.4,29.91,NW,315,1.0,1.0,82,0.00,,---,0.01,0.00,VWS V14.01,2014-08-22 18:32:00,
2014-08-22 14:33:00,80.5,74.5,29.91,NW,315,0.0,1.0,82,0.00,,---,0.01,0.00,VWS V14.01,2014-08-22 18:33:00,
2014-08-22 14:34:00,80.6,75.0,29.91,NW,315,0.0,3.0,83,0.00,,---,0.01,0.00,VWS V14.01,2014-08-22 18:34:00,
2014-08-22 14:35:00,80.7,74.7,29.91,NW,317,7.0,8.0,82,0.00,,---,0.01,0.00,VWS V14.01,2014-08-22 18:35:00,
2014-08-22 14:36:00,79.9,74.6,29.91,NW,315,0.0,1.0,84,0.00,,---,0.01,0.00,VWS V14.01,2014-08-22 18:36:00,
2014-08-22 14:37:00,79.9,74.6,29.91,NW,315,2.0,6.0,84,0.00,,---,0.01,0.00,VWS V14.01,2014-08-22 18:37:00,
2014-08-22 14:38:00,81.0,74.6,29.91,NW,319,1.0,5.0,81,0.00,,---,0.01,0.00,VWS V14.01,2014-08-22 18:38:00,
2014-08-22 14:39:00,81.2,74.8,29.91,NW,319,0.0,0.0,81,0.00,,---,0.01,0.00,VWS V14.01,2014-08-22 18:39:00,
2014-08-22 14:40:00,81.3,74.9,29.90,NW,319,5.0,6.0,81,0.00,,---,0.01,0.00,VWS V14.01,2014-08-22 18:40:00,
2014-08-22 14:41:00,81.4,75.0,29.90,NW,319,2.0,4.0,81,0.00,,---,0.01,0.00,VWS V14.01,2014-08-22 18:41:00,
2014-08-22 14:42:00,81.5,74.7,29.90,NW,319,0.0,2.0,80,0.00,,---,0.01,0.00,VWS V14.01,2014-08-22 18:42:00,
2014-08-22 14:43:00,80.2,74.6,29.91,NW,315,0.0,1.0,83,0.00,,---,0.01,0.00,VWS V14.01,2014-08-22 18:43:00,
2014-08-22 14:44:00,81.7,74.9,29.91,NW,319,4.0,4.0,80,0.00,,---,0.01,0.00,VWS V14.01,2014-08-22 18:44:00,
2014-08-22 14:45:00,80.4,74.4,29.91,NW,315,1.0,1.0,82,0.00,,---,0.01,0.00,VWS V14.01,2014-08-22 18:45:00,
2014-08-22 14:46:00,81.9,74.8,29.91,NW,319,1.0,5.0,79,0.00,,---,0.01,0.00,VWS V14.01,2014-08-22 18:46:00,
2014-08-22 14:47:00,82.0,75.2,29.91,NW,319,2.0,2.0,80,0.00,,---,0.01,0.00,VWS V14.01,2014-08-22 18:47:00,
2014-08-22 14:48:00,82.0,74.8,29.90,NW,319,6.0,7.0,79,0.00,,---,0.01,0.00,VWS V14.01,2014-08-22 18:48:00,
2014-08-22 14:49:00,82.1,74.6,29.91,NW,319,5.0,5.0,78,0.00,,---,0.01,0.00,VWS V14.01,2014-08-22 18:49:00,
2014-08-22 14:50:00,82.1,74.9,29.90,NW,319,0.0,6.0,79,0.00,,---,0.01,0.00,VWS V14.01,2014-08-22 18:50:00,
2014-08-22 14:51:00,82.3,75.1,29.90,NW,319,0.0,4.0,79,0.00,,---,0.01,0.00,VWS V14.01,2014-08-22 18:51:00,
2014-08-22 14:52:00,82.4,75.6,29.91,NW,319,0.0,4.0,80,0.00,,---,0.01,0.00,VWS V14.01,2014-08-22 18:52:00,
2014-08-22 14:53:00,82.6,75.4,29.90,NW,319,0.0,5.0,79,0.00,,---,0.01,0.00,VWS V14.01,2014-08-22 18:53:00,
2014-08-22 14:54:00,81.4,75.0,29.90,NW,319,1.0,4.0,81,0.00,,---,0.01,0.00,VWS V14.01,2014-08-22 18:54:00,
2014-08-22 14:55:00,82.8,75.6,29.91,NW,319,4.0,5.0,79,0.00,,---,0.01,0.00,VWS V14.01,2014-08-22 18:55:00,
2014-08-22 14:56:00,82.9,75.3,29.90,NW,313,5.0,6.0,78,0.00,,---,0.01,0.00,VWS V14.01,2014-08-22 18:56:00,
2014-08-22 14:57:00,82.9,75.3,29.90,NW,312,2.0,9.0,78,0.00,,---,0.01,0.00,VWS V14.01,2014-08-22 18:57:00,
2014-08-22 14:58:00,82.8,74.9,29.91,NW,312,0.0,6.0,77,0.00,,---,0.01,0.00,VWS V14.01,2014-08-22 18:58:00,
2014-08-22 14:59:00,81.8,74.7,29.91,NW,319,1.0,3.0,79,0.00,,---,0.01,0.00,VWS V14.01,2014-08-22 18:59:00,
2014-08-22 15:00:00,82.6,74.7,29.91,NW,314,0.0,7.0,77,0.00,,---,0.01,0.00,VWS V14.01,2014-08-22 19:00:00,
2014-08-22 15:01:00,82.6,74.7,29.91,NW,311,3.0,6.0,77,0.00,,---,0.01,0.00,VWS V14.01,2014-08-22 19:01:00,
2014-08-22 15:02:00,82.1,74.6,29.91,NW,319,2.0,6.0,78,0.00,,---,0.01,0.00,VWS V14.01,2014-08-22 19:02:00,
2014-08-22 15:03:00,82.4,74.9,29.91,NW,311,0.0,8.0,78,0.00,,---,0.01,0.00,VWS V14.01,2014-08-22 19:03:00,
2014-08-22 15:04:00,82.3,74.8,29.91,WNW,295,7.0,9.0,78,0.00,,---,0.01,0.00,VWS V14.01,2014-08-22 19:04:00,
2014-08-22 15:05:00,82.2,74.7,29.90,WNW,295,6.0,7.0,78,0.00,,---,0.01,0.00,VWS V14.01,2014-08-22 19:05:00,
2014-08-22 15:06:00,82.0,74.5,29.90,WNW,295,6.0,7.0,78,0.00,,---,0.01,0.00,VWS V14.01,2014-08-22 19:06:00,
2014-08-22 15:07:00,82.0,74.5,29.90,WNW,292,1.0,8.0,78,0.00,,---,0.01,0.00,VWS V14.01,2014-08-22 19:07:00,
2014-08-22 15:08:00,81.9,74.4,29.90,WNW,292,1.0,4.0,78,0.00,,---,0.01,0.00,VWS V14.01,2014-08-22 19:08:00,
2014-08-22 15:09:00,81.9,74.8,29.90,WNW,300,6.0,9.0,79,0.00,,---,0.01,0.00,VWS V14.01,2014-08-22 19:09:00,
2014-08-22 15:10:00,81.9,74.8,29.91,WNW,300,0.0,2.0,79,0.00,,---,0.01,0.00,VWS V14.01,2014-08-22 19:10:00,
2014-08-22 15:11:00,81.9,74.4,29.90,WNW,301,2.0,4.0,78,0.00,,---,0.01,0.00,VWS V14.01,2014-08-22 19:11:00,
2014-08-22 15:12:00,82.0,74.5,29.91,WNW,301,1.0,6.0,78,0.00,,---,0.01,0.00,VWS V14.01,2014-08-22 19:12:00,
2014-08-22 15:13:00,82.0,74.5,29.90,NW,315,9.0,10.0,78,0.00,,---,0.01,0.00,VWS V14.01,2014-08-22 19:13:00,
2014-08-22 15:14:00,82.5,74.6,29.91,NW,311,1.0,8.0,77,0.00,,---,0.01,0.00,VWS V14.01,2014-08-22 19:14:00,
2014-08-22 15:15:00,82.0,74.8,29.91,NW,315,1.0,1.0,79,0.01,,---,0.02,0.00,VWS V14.01,2014-08-22 19:15:00,
2014-08-22 15:16:00,82.4,74.9,29.91,NW,311,1.0,8.0,78,0.00,,---,0.01,0.00,VWS V14.01,2014-08-22 19:16:00,
2014-08-22 15:17:00,82.1,74.9,29.91,NW,315,2.0,2.0,79,0.01,,---,0.02,0.00,VWS V14.01,2014-08-22 19:17:00,
2014-08-22 15:18:00,82.1,74.6,29.90,NW,318,0.0,5.0,78,0.01,,---,0.02,0.00,VWS V14.01,2014-08-22 19:18:00,
2014-08-22 15:19:00,82.1,74.6,29.90,NW,318,2.0,5.0,78,0.01,,---,0.02,0.00,VWS V14.01,2014-08-22 19:19:00,
2014-08-22 15:20:00,82.1,74.9,29.90,NW,318,5.0,5.0,79,0.01,,---,0.02,0.00,VWS V14.01,2014-08-22 19:20:00,
2014-08-22 15:21:00,82.0,74.5,29.90,WNW,292,4.0,4.0,78,0.00,,---,0.01,0.00,VWS V14.01,2014-08-22 19:21:00,
2014-08-22 15:22:00,82.1,74.6,29.90,NW,318,4.0,5.0,78,0.01,,---,0.02,0.00,VWS V14.01,2014-08-22 19:22:00,
2014-08-22 15:23:00,82.0,74.5,29.91,NW,318,1.0,4.0,78,0.01,,---,0.02,0.00,VWS V14.01,2014-08-22 19:23:00,
2014-08-22 15:24:00,81.9,74.4,29.90,NW,318,0.0,1.0,78,0.01,,---,0.02,0.00,VWS V14.01,2014-08-22 19:24:00,
2014-08-22 15:25:00,81.8,74.7,29.90,NW,318,2.0,2.0,79,0.01,,---,0.02,0.00,VWS V14.01,2014-08-22 19:25:00,
2014-08-22 15:26:00,81.8,74.3,29.90,NW,318,0.0,2.0,78,0.01,,---,0.02,0.00,VWS V14.01,2014-08-22 19:26:00,
2014-08-22 15:27:00,81.8,74.7,29.90,NW,318,0.0,5.0,79,0.01,,---,0.02,0.00,VWS V14.01,2014-08-22 19:27:00,
2014-08-22 15:28:00,81.7,74.6,29.90,NW,318,0.0,1.0,79,0.01,,---,0.02,0.00,VWS V14.01,2014-08-22 19:28:00,
2014-08-22 15:29:00,82.0,74.8,29.91,NW,315,0.0,5.0,79,0.01,,---,0.02,0.00,VWS V14.01,2014-08-22 19:29:00,
2014-08-22 15:30:00,81.6,74.5,29.90,NW,318,1.0,6.0,79,0.01,,---,0.02,0.00,VWS V14.01,2014-08-22 19:30:00,
2014-08-22 15:31:00,82.1,74.6,29.90,NW,318,1.0,5.0,78,0.01,,---,0.02,0.00,VWS V14.01,2014-08-22 19:31:00,
2014-08-22 15:32:00,81.6,74.5,29.90,NW,318,0.0,4.0,79,0.01,,---,0.02,0.00,VWS V14.01,2014-08-22 19:32:00,
2014-08-22 15:33:00,81.6,74.5,29.91,NW,318,0.0,1.0,79,0.01,,---,0.02,0.00,VWS V14.01,2014-08-22 19:33:00,
2014-08-22 15:34:00,82.1,74.6,29.90,NW,318,2.0,7.0,78,0.01,,---,0.02,0.00,VWS V14.01,2014-08-22 19:34:00,
2014-08-22 15:35:00,81.6,74.5,29.91,NW,318,0.0,2.0,79,0.01,,---,0.02,0.00,VWS V14.01,2014-08-22 19:35:00,
2014-08-22 15:36:00,81.5,74.0,29.90,NW,318,1.0,5.0,78,0.01,,---,0.02,0.00,VWS V14.01,2014-08-22 19:36:00,
2014-08-22 15:37:00,81.5,74.0,29.90,NW,318,2.0,5.0,78,0.01,,---,0.02,0.00,VWS V14.01,2014-08-22 19:37:00,
2014-08-22 15:38:00,81.5,74.4,29.90,NW,318,2.0,5.0,79,0.01,,---,0.02,0.00,VWS V14.01,2014-08-22 19:38:00,
2014-08-22 15:39:00,81.5,74.4,29.90,NW,318,7.0,7.0,79,0.01,,---,0.02,0.00,VWS V14.01,2014-08-22 19:39:00,
2014-08-22 15:40:00,81.5,74.4,29.90,NW,318,4.0,7.0,79,0.01,,---,0.02,0.00,VWS V14.01,2014-08-22 19:40:00,
2014-08-22 15:41:00,81.7,74.6,29.90,NW,318,0.0,1.0,79,0.01,,---,0.02,0.00,VWS V14.01,2014-08-22 19:41:00,
2014-08-22 15:42:00,81.4,73.9,29.90,NW,318,0.0,2.0,78,0.01,,---,0.02,0.00,VWS V14.01,2014-08-22 19:42:00,
2014-08-22 15:43:00,81.4,74.3,29.90,NW,318,0.0,2.0,79,0.01,,---,0.02,0.00,VWS V14.01,2014-08-22 19:43:00,
2014-08-22 15:44:00,81.6,74.5,29.90,NW,318,0.0,3.0,79,0.01,,---,0.02,0.00,VWS V14.01,2014-08-22 19:44:00,
2014-08-22 15:45:00,81.3,74.2,29.90,NW,318,0.0,1.0,79,0.01,,---,0.02,0.00,VWS V14.01,2014-08-22 19:45:00,
2014-08-22 15:46:00,81.6,74.5,29.91,NW,318,0.0,1.0,79,0.01,,---,0.02,0.00,VWS V14.01,2014-08-22 19:46:00,
2014-08-22 15:47:00,81.3,74.2,29.90,NW,318,0.0,5.0,79,0.01,,---,0.02,0.00,VWS V14.01,2014-08-22 19:47:00,
2014-08-22 15:48:00,81.3,74.2,29.90,NW,318,4.0,5.0,79,0.01,,---,0.02,0.00,VWS V14.01,2014-08-22 19:48:00,
2014-08-22 15:49:00,81.2,74.1,29.90,NW,318,1.0,5.0,79,0.01,,---,0.02,0.00,VWS V14.01,2014-08-22 19:49:00,
2014-08-22 15:50:00,81.2,74.1,29.90,NW,318,0.0,5.0,79,0.01,,---,0.02,0.00,VWS V14.01,2014-08-22 19:50:00,
2014-08-22 15:51:00,81.2,74.1,29.90,NW,318,1.0,4.0,79,0.01,,---,0.02,0.00,VWS V14.01,2014-08-22 19:51:00,
2014-08-22 15:52:00,81.5,74.4,29.90,NW,318,4.0,6.0,79,0.01,,---,0.02,0.00,VWS V14.01,2014-08-22 19:52:00,
2014-08-22 15:53:00,81.1,74.0,29.90,NW,318,2.0,2.0,79,0.01,,---,0.02,0.00,VWS V14.01,2014-08-22 19:53:00,
2014-08-22 15:54:00,81.1,74.0,29.90,NW,318,3.0,3.0,79,0.01,,---,0.02,0.00,VWS V14.01,2014-08-22 19:54:00,
2014-08-22 15:55:00,81.1,74.0,29.90,NW,318,0.0,2.0,79,0.01,,---,0.02,0.00,VWS V14.01,2014-08-22 19:55:00,
2014-08-22 15:56:00,81.1,74.0,29.90,NW,318,1.0,2.0,79,0.01,,---,0.02,0.00,VWS V14.01,2014-08-22 19:56:00,
2014-08-22 15:57:00,81.1,74.0,29.90,NW,318,0.0,5.0,79,0.01,,---,0.02,0.00,VWS V14.01,2014-08-22 19:57:00,
2014-08-22 15:58:00,81.3,74.2,29.90,NW,318,0.0,0.0,79,0.01,,---,0.02,0.00,VWS V14.01,2014-08-22 19:58:00,
2014-08-22 15:59:00,81.1,74.0,29.90,NW,318,4.0,4.0,79,0.01,,---,0.02,0.00,VWS V14.01,2014-08-22 19:59:00,
2014-08-22 16:00:00,81.2,74.1,29.90,NW,318,0.0,8.0,79,0.01,,---,0.02,0.00,VWS V14.01,2014-08-22 20:00:00,
2014-08-22 16:01:00,81.2,74.1,29.90,NW,318,1.0,1.0,79,0.01,,---,0.02,0.00,VWS V14.01,2014-08-22 20:01:00,
2014-08-22 16:02:00,81.1,74.0,29.90,NW,318,1.0,5.0,79,0.01,,---,0.02,0.00,VWS V14.01,2014-08-22 20:02:00,
2014-08-22 16:03:00,81.1,74.3,29.90,NW,318,1.0,2.0,80,0.01,,---,0.02,0.00,VWS V14.01,2014-08-22 20:03:00,
2014-08-22 16:04:00,81.2,74.1,29.90,NW,318,1.0,5.0,79,0.01,,---,0.02,0.00,VWS V14.01,2014-08-22 20:04:00,
2014-08-22 16:05:00,81.2,74.1,29.90,NW,318,0.0,2.0,79,0.01,,---,0.02,0.00,VWS V14.01,2014-08-22 20:05:00,
2014-08-22 16:06:00,81.2,74.1,29.90,NW,318,1.0,2.0,79,0.01,,---,0.02,0.00,VWS V14.01,2014-08-22 20:06:00,
2014-08-22 16:07:00,81.2,74.1,29.90,NW,318,0.0,2.0,79,0.01,,---,0.02,0.00,VWS V14.01,2014-08-22 20:07:00,
2014-08-22 16:08:00,81.3,74.5,29.90,NW,318,1.0,1.0,80,0.01,,---,0.02,0.00,VWS V14.01,2014-08-22 20:08:00,
2014-08-22 16:09:00,81.4,74.3,29.90,NW,319,1.0,4.0,79,0.01,,---,0.02,0.00,VWS V14.01,2014-08-22 20:09:00,
2014-08-22 16:10:00,81.4,74.3,29.90,NW,318,0.0,1.0,79,0.01,,---,0.02,0.00,VWS V14.01,2014-08-22 20:10:00,
2014-08-22 16:11:00,81.5,74.4,29.90,NW,318,1.0,2.0,79,0.01,,---,0.02,0.00,VWS V14.01,2014-08-22 20:11:00,
2014-08-22 16:12:00,81.6,74.5,29.90,NW,318,0.0,0.0,79,0.01,,---,0.02,0.00,VWS V14.01,2014-08-22 20:12:00,
2014-08-22 16:13:00,81.6,74.5,29.90,NW,318,0.0,1.0,79,0.01,,---,0.02,0.00,VWS V14.01,2014-08-22 20:13:00,
2014-08-22 16:14:00,81.8,74.7,29.90,NW,318,2.0,2.0,79,0.01,,---,0.02,0.00,VWS V14.01,2014-08-22 20:14:00,
2014-08-22 16:15:00,81.9,74.4,29.90,NW,318,0.0,3.0,78,0.01,,---,0.02,0.00,VWS V14.01,2014-08-22 20:15:00,
2014-08-22 16:16:00,82.0,74.5,29.90,NW,318,0.0,0.0,78,0.00,,---,0.02,0.00,VWS V14.01,2014-08-22 20:16:00,
2014-08-22 16:17:00,82.0,74.5,29.90,NW,318,2.0,7.0,78,0.00,,---,0.02,0.00,VWS V14.01,2014-08-22 20:17:00,
2014-08-22 16:18:00,82.2,74.7,29.90,NW,318,2.0,6.0,78,0.00,,---,0.02,0.00,VWS V14.01,2014-08-22 20:18:00,
2014-08-22 16:19:00,82.3,74.4,29.90,NW,318,2.0,5.0,77,0.00,,---,0.02,0.00,VWS V14.01,2014-08-22 20:19:00,
2014-08-22 16:20:00,82.3,74.4,29.90,NW,318,2.0,2.0,77,0.00,,---,0.02,0.00,VWS V14.01,2014-08-22 20:20:00,
2014-08-22 16:21:00,81.3,74.2,29.90,NW,318,0.0,0.0,79,0.01,,---,0.02,0.00,VWS V14.01,2014-08-22 20:21:00,
2014-08-22 16:22:00,82.4,74.9,29.90,NW,318,0.0,1.0,78,0.00,,---,0.02,0.00,VWS V14.01,2014-08-22 20:22:00,
2014-08-22 16:23:00,82.5,74.9,29.90,NW,318,0.0,2.0,78,0.00,,---,0.02,0.00,VWS V14.01,2014-08-22 20:23:00,
2014-08-22 16:24:00,82.5,74.9,29.90,NW,318,1.0,1.0,78,0.00,,---,0.02,0.00,VWS V14.01,2014-08-22 20:24:00,
2014-08-22 16:25:00,82.6,74.7,29.90,NW,318,0.0,1.0,77,0.00,,---,0.02,0.00,VWS V14.01,2014-08-22 20:25:00,
2014-08-22 16:26:00,82.7,74.8,29.90,NW,318,1.0,2.0,77,0.00,,---,0.02,0.00,VWS V14.01,2014-08-22 20:26:00,
2014-08-22 16:27:00,81.8,74.7,29.90,NW,318,1.0,1.0,79,0.01,,---,0.02,0.00,VWS V14.01,2014-08-22 20:27:00,
2014-08-22 16:28:00,81.9,74.4,29.90,NW,318,0.0,2.0,78,0.01,,---,0.02,0.00,VWS V14.01,2014-08-22 20:28:00,
2014-08-22 16:29:00,82.0,74.5,29.90,NW,318,0.0,0.0,78,0.00,,---,0.02,0.00,VWS V14.01,2014-08-22 20:29:00,
2014-08-22 16:30:00,82.9,74.9,29.90,NW,318,0.0,1.0,77,0.00,,---,0.02,0.00,VWS V14.01,2014-08-22 20:30:00,
2014-08-22 16:31:00,82.9,75.3,29.90,NW,318,0.0,4.0,78,0.00,,---,0.02,0.00,VWS V14.01,2014-08-22 20:31:00,
2014-08-22 16:32:00,82.9,74.9,29.90,NW,318,1.0,5.0,77,0.00,,---,0.02,0.00,VWS V14.01,2014-08-22 20:32:00,
2014-08-22 16:33:00,82.3,74.4,29.90,NW,318,0.0,2.0,77,0.00,,---,0.02,0.00,VWS V14.01,2014-08-22 20:33:00,
2014-08-22 16:34:00,82.9,74.6,29.90,NW,318,0.0,4.0,76,0.00,,---,0.02,0.00,VWS V14.01,2014-08-22 20:34:00,
2014-08-22 16:35:00,82.9,74.6,29.90,NW,318,2.0,2.0,76,0.00,,---,0.02,0.00,VWS V14.01,2014-08-22 20:35:00,
2014-08-22 16:36:00,82.8,74.5,29.90,NW,318,2.0,3.0,76,0.00,,---,0.02,0.00,VWS V14.01,2014-08-22 20:36:00,
2014-08-22 16:37:00,82.8,74.9,29.90,NW,318,0.0,1.0,77,0.00,,---,0.02,0.00,VWS V14.01,2014-08-22 20:37:00,
2014-08-22 16:38:00,82.7,74.8,29.90,NW,318,0.0,1.0,77,0.00,,---,0.02,0.00,VWS V14.01,2014-08-22 20:38:00,
2014-08-22 16:39:00,82.7,75.2,29.90,NW,318,0.0,0.0,78,0.00,,---,0.02,0.00,VWS V14.01,2014-08-22 20:39:00,
2014-08-22 16:40:00,82.6,75.1,29.90,NW,318,0.0,0.0,78,0.00,,---,0.02,0.00,VWS V14.01,2014-08-22 20:40:00,
2014-08-22 16:41:00,82.5,74.9,29.90,NW,318,0.0,0.0,78,0.00,,---,0.02,0.00,VWS V14.01,2014-08-22 20:41:00,
2014-08-22 16:42:00,82.5,74.9,29.90,NW,318,1.0,1.0,78,0.00,,---,0.02,0.00,VWS V14.01,2014-08-22 20:42:00,
2014-08-22 16:43:00,82.4,74.9,29.90,NW,318,0.0,2.0,78,0.00,,---,0.02,0.00,VWS V14.01,2014-08-22 20:43:00,
2014-08-22 16:44:00,82.4,74.9,29.91,NW,318,0.0,1.0,78,0.00,,---,0.02,0.00,VWS V14.01,2014-08-22 20:44:00,
2014-08-22 16:45:00,82.3,75.1,29.90,NW,318,0.0,1.0,79,0.00,,---,0.02,0.00,VWS V14.01,2014-08-22 20:45:00,
2014-08-22 16:46:00,82.9,74.6,29.90,NW,318,1.0,2.0,76,0.00,,---,0.02,0.00,VWS V14.01,2014-08-22 20:46:00,
2014-08-22 16:47:00,82.9,74.6,29.90,NW,318,0.0,5.0,76,0.00,,---,0.02,0.00,VWS V14.01,2014-08-22 20:47:00,
2014-08-22 16:48:00,82.1,74.6,29.91,NW,318,0.0,6.0,78,0.00,,---,0.02,0.00,VWS V14.01,2014-08-22 20:48:00,
2014-08-22 16:49:00,82.1,74.9,29.91,NW,318,0.0,1.0,79,0.00,,---,0.02,0.00,VWS V14.01,2014-08-22 20:49:00,
2014-08-22 16:50:00,82.1,74.9,29.91,NW,318,0.0,0.0,79,0.00,,---,0.02,0.00,VWS V14.01,2014-08-22 20:50:00,
2014-08-22 16:51:00,82.1,74.9,29.91,NW,318,0.0,1.0,79,0.00,,---,0.02,0.00,VWS V14.01,2014-08-22 20:51:00,
2014-08-22 16:52:00,82.0,74.8,29.90,NW,318,0.0,2.0,79,0.00,,---,0.02,0.00,VWS V14.01,2014-08-22 20:52:00,
2014-08-22 16:53:00,82.0,74.8,29.90,NW,318,0.0,0.0,79,0.00,,---,0.02,0.00,VWS V14.01,2014-08-22 20:53:00,
2014-08-22 16:54:00,82.0,74.8,29.90,NW,318,1.0,2.0,79,0.00,,---,0.02,0.00,VWS V14.01,2014-08-22 20:54:00,
2014-08-22 16:55:00,82.5,74.9,29.90,NW,318,0.0,1.0,78,0.00,,---,0.02,0.00,VWS V14.01,2014-08-22 20:55:00,
2014-08-22 16:56:00,82.0,74.8,29.90,NW,318,1.0,1.0,79,0.00,,---,0.02,0.00,VWS V14.01,2014-08-22 20:56:00,
2014-08-22 16:57:00,82.0,74.8,29.90,NW,318,0.0,1.0,79,0.00,,---,0.02,0.00,VWS V14.01,2014-08-22 20:57:00,
2014-08-22 16:58:00,82.0,74.8,29.90,NW,318,0.0,0.0,79,0.00,,---,0.02,0.00,VWS V14.01,2014-08-22 20:58:00,
2014-08-22 16:59:00,82.0,74.8,29.90,NW,318,1.0,1.0,79,0.00,,---,0.02,0.00,VWS V14.01,2014-08-22 20:59:00,
2014-08-22 17:00:00,82.0,74.8,29.90,NW,318,0.0,2.0,79,0.00,,---,0.02,0.00,VWS V14.01,2014-08-22 21:00:00,
2014-08-22 17:01:00,82.0,74.8,29.90,NW,318,0.0,2.0,79,0.00,,---,0.02,0.00,VWS V14.01,2014-08-22 21:01:00,
2014-08-22 17:02:00,82.0,74.8,29.91,NW,318,2.0,3.0,79,0.00,,---,0.02,0.00,VWS V14.01,2014-08-22 21:02:00,
2014-08-22 17:03:00,82.0,74.5,29.90,NW,318,2.0,5.0,78,0.00,,---,0.02,0.00,VWS V14.01,2014-08-22 21:03:00,
2014-08-22 17:04:00,82.0,74.5,29.90,NW,318,0.0,2.0,78,0.00,,---,0.02,0.00,VWS V14.01,2014-08-22 21:04:00,
2014-08-22 17:05:00,82.0,74.8,29.90,NW,318,0.0,1.0,79,0.00,,---,0.02,0.00,VWS V14.01,2014-08-22 21:05:00,
2014-08-22 17:06:00,81.9,74.4,29.90,NW,318,1.0,2.0,78,0.00,,---,0.02,0.00,VWS V14.01,2014-08-22 21:06:00,
2014-08-22 17:07:00,81.9,74.4,29.90,NW,318,0.0,3.0,78,0.00,,---,0.02,0.00,VWS V14.01,2014-08-22 21:07:00,
2014-08-22 17:08:00,81.9,74.4,29.91,NW,318,2.0,5.0,78,0.00,,---,0.02,0.00,VWS V14.01,2014-08-22 21:08:00,
2014-08-22 17:09:00,81.9,74.8,29.91,NW,318,4.0,5.0,79,0.00,,---,0.02,0.00,VWS V14.01,2014-08-22 21:09:00,
2014-08-22 17:10:00,81.9,74.8,29.90,NW,318,4.0,5.0,79,0.00,,---,0.02,0.00,VWS V14.01,2014-08-22 21:10:00,
2014-08-22 17:11:00,81.8,74.7,29.90,NW,318,0.0,7.0,79,0.00,,---,0.02,0.00,VWS V14.01,2014-08-22 21:11:00,
2014-08-22 17:12:00,81.8,74.7,29.91,NW,318,4.0,4.0,79,0.00,,---,0.02,0.00,VWS V14.01,2014-08-22 21:12:00,
2014-08-22 17:13:00,81.8,74.3,29.90,NW,318,2.0,6.0,78,0.00,,---,0.02,0.00,VWS V14.01,2014-08-22 21:13:00,
2014-08-22 17:14:00,81.8,74.3,29.91,NW,318,1.0,6.0,78,0.00,,---,0.02,0.00,VWS V14.01,2014-08-22 21:14:00,
2014-08-22 17:15:00,81.7,74.6,29.91,NW,318,1.0,6.0,79,0.00,,---,0.02,0.00,VWS V14.01,2014-08-22 21:15:00,
2014-08-22 17:16:00,81.7,74.6,29.91,NW,318,4.0,8.0,79,0.00,,---,0.02,0.00,VWS V14.01,2014-08-22 21:16:00,
2014-08-22 17:17:00,82.0,74.5,29.90,NW,318,0.0,2.0,78,0.00,,---,0.02,0.00,VWS V14.01,2014-08-22 21:17:00,
2014-08-22 17:18:00,81.7,74.6,29.90,NW,318,3.0,5.0,79,0.00,,---,0.02,0.00,VWS V14.01,2014-08-22 21:18:00,
2014-08-22 17:19:00,81.7,74.6,29.91,NW,318,1.0,5.0,79,0.00,,---,0.02,0.00,VWS V14.01,2014-08-22 21:19:00,
2014-08-22 17:20:00,81.9,74.4,29.90,NW,318,0.0,3.0,78,0.00,,---,0.02,0.00,VWS V14.01,2014-08-22 21:20:00,
2014-08-22 17:21:00,81.6,74.5,29.90,NW,318,0.0,1.0,79,0.00,,---,0.02,0.00,VWS V14.01,2014-08-22 21:21:00,
2014-08-22 17:22:00,81.6,74.5,29.90,NW,318,0.0,6.0,79,0.00,,---,0.02,0.00,VWS V14.01,2014-08-22 21:22:00,
2014-08-22 17:23:00,81.6,74.5,29.90,NW,318,1.0,5.0,79,0.00,,---,0.02,0.00,VWS V14.01,2014-08-22 21:23:00,
2014-08-22 17:24:00,81.6,74.5,29.90,NW,318,0.0,1.0,79,0.00,,---,0.02,0.00,VWS V14.01,2014-08-22 21:24:00,
2014-08-22 17:25:00,81.6,74.5,29.91,NW,318,3.0,3.0,79,0.00,,---,0.02,0.00,VWS V14.01,2014-08-22 21:25:00,
2014-08-22 17:26:00,81.8,74.3,29.90,NW,318,3.0,6.0,78,0.00,,---,0.02,0.00,VWS V14.01,2014-08-22 21:26:00,
2014-08-22 17:27:00,81.6,74.5,29.90,NW,318,2.0,2.0,79,0.00,,---,0.02,0.00,VWS V14.01,2014-08-22 21:27:00,
2014-08-22 17:28:00,81.7,74.6,29.91,NW,318,4.0,6.0,79,0.00,,---,0.02,0.00,VWS V14.01,2014-08-22 21:28:00,
2014-08-22 17:29:00,81.5,74.4,29.90,NW,318,7.0,7.0,79,0.00,,---,0.02,0.00,VWS V14.01,2014-08-22 21:29:00,
2014-08-22 17:30:00,81.5,74.4,29.90,NW,318,1.0,5.0,79,0.00,,---,0.02,0.00,VWS V14.01,2014-08-22 21:30:00,
2014-08-22 17:31:00,81.4,74.3,29.90,NW,318,1.0,1.0,79,0.00,,---,0.02,0.00,VWS V14.01,2014-08-22 21:31:00,
2014-08-22 17:32:00,81.4,74.6,29.90,NW,318,1.0,2.0,80,0.00,,---,0.02,0.00,VWS V14.01,2014-08-22 21:32:00,
2014-08-22 17:33:00,81.4,74.3,29.90,NW,318,0.0,2.0,79,0.00,,---,0.02,0.00,VWS V14.01,2014-08-22 21:33:00,
2014-08-22 17:34:00,81.3,74.5,29.90,NW,318,1.0,2.0,80,0.00,,---,0.02,0.00,VWS V14.01,2014-08-22 21:34:00,
2014-08-22 17:35:00,81.3,74.5,29.90,NW,318,1.0,2.0,80,0.00,,---,0.02,0.00,VWS V14.01,2014-08-22 21:35:00,
2014-08-22 17:36:00,81.6,74.5,29.90,NW,318,2.0,5.0,79,0.00,,---,0.02,0.00,VWS V14.01,2014-08-22 21:36:00,
2014-08-22 17:37:00,81.3,74.5,29.91,NW,318,0.0,2.0,80,0.00,,---,0.02,0.00,VWS V14.01,2014-08-22 21:37:00,
2014-08-22 17:38:00,81.6,74.5,29.91,NW,318,2.0,3.0,79,0.00,,---,0.02,0.00,VWS V14.01,2014-08-22 21:38:00,
2014-08-22 17:39:00,81.3,74.5,29.91,NW,318,1.0,2.0,80,0.00,,---,0.02,0.00,VWS V14.01,2014-08-22 21:39:00,
2014-08-22 17:40:00,81.3,74.5,29.90,NW,318,1.0,1.0,80,0.00,,---,0.02,0.00,VWS V14.01,2014-08-22 21:40:00,
2014-08-22 17:41:00,81.2,74.4,29.91,NW,318,0.0,1.0,80,0.00,,---,0.02,0.00,VWS V14.01,2014-08-22 21:41:00,
2014-08-22 17:42:00,81.3,74.9,29.90,NW,318,1.0,2.0,81,0.00,,---,0.02,0.00,VWS V14.01,2014-08-22 21:42:00,
2014-08-22 17:43:00,81.3,74.5,29.90,NW,318,2.0,2.0,80,0.00,,---,0.02,0.00,VWS V14.01,2014-08-22 21:43:00,
2014-08-22 17:44:00,81.3,74.9,29.90,NW,318,1.0,3.0,81,0.00,,---,0.02,0.00,VWS V14.01,2014-08-22 21:44:00,
2014-08-22 17:45:00,81.4,74.6,29.90,NW,318,1.0,2.0,80,0.00,,---,0.02,0.00,VWS V14.01,2014-08-22 21:45:00,
2014-08-22 17:46:00,81.4,74.3,29.90,NW,318,0.0,2.0,79,0.00,,---,0.02,0.00,VWS V14.01,2014-08-22 21:46:00,
2014-08-22 17:47:00,81.4,74.6,29.90,NW,318,1.0,5.0,80,0.00,,---,0.02,0.00,VWS V14.01,2014-08-22 21:47:00,
2014-08-22 17:48:00,81.4,75.0,29.90,NW,318,0.0,1.0,81,0.00,,---,0.02,0.00,VWS V14.01,2014-08-22 21:48:00,
2014-08-22 17:49:00,81.4,75.0,29.90,NW,318,0.0,1.0,81,0.00,,---,0.02,0.00,VWS V14.01,2014-08-22 21:49:00,
2014-08-22 17:50:00,81.4,75.0,29.90,NW,318,0.0,0.0,81,0.00,,---,0.02,0.00,VWS V14.01,2014-08-22 21:50:00,
2014-08-22 17:51:00,81.4,75.0,29.90,NW,318,0.0,1.0,81,0.00,,---,0.02,0.00,VWS V14.01,2014-08-22 21:51:00,
2014-08-22 17:52:00,81.4,75.0,29.90,NW,318,0.0,0.0,81,0.00,,---,0.02,0.00,VWS V14.01,2014-08-22 21:52:00,
2014-08-22 17:53:00,81.4,75.0,29.90,NW,318,1.0,2.0,81,0.00,,---,0.02,0.00,VWS V14.01,2014-08-22 21:53:00,
2014-08-22 17:54:00,81.4,75.0,29.90,NW,318,0.0,2.0,81,0.00,,---,0.02,0.00,VWS V14.01,2014-08-22 21:54:00,
2014-08-22 17:55:00,81.4,74.6,29.90,NW,318,5.0,5.0,80,0.00,,---,0.02,0.00,VWS V14.01,2014-08-22 21:55:00,
2014-08-22 17:56:00,81.4,74.6,29.91,NW,318,0.0,5.0,80,0.00,,---,0.02,0.00,VWS V14.01,2014-08-22 21:56:00,
2014-08-22 17:57:00,81.3,74.9,29.90,NW,318,3.0,5.0,81,0.00,,---,0.02,0.00,VWS V14.01,2014-08-22 21:57:00,
2014-08-22 17:58:00,81.3,74.5,29.90,NW,318,0.0,3.0,80,0.00,,---,0.02,0.00,VWS V14.01,2014-08-22 21:58:00,
2014-08-22 17:59:00,81.3,74.9,29.90,NW,318,0.0,4.0,81,0.00,,---,0.02,0.00,VWS V14.01,2014-08-22 21:59:00,
2014-08-22 18:00:00,81.4,75.0,29.90,NW,318,0.0,5.0,81,0.00,,---,0.02,0.00,VWS V14.01,2014-08-22 22:00:00,
2014-08-22 18:01:00,81.2,74.8,29.90,NW,318,0.0,1.0,81,0.00,,---,0.02,0.00,VWS V14.01,2014-08-22 22:01:00,
2014-08-22 18:02:00,81.2,74.8,29.90,NW,318,0.0,2.0,81,0.00,,---,0.02,0.00,VWS V14.01,2014-08-22 22:02:00,
2014-08-22 18:03:00,81.2,74.8,29.90,NW,318,4.0,5.0,81,0.00,,---,0.02,0.00,VWS V14.01,2014-08-22 22:03:00,
2014-08-22 18:04:00,81.2,74.8,29.90,NW,318,1.0,3.0,81,0.00,,---,0.02,0.00,VWS V14.01,2014-08-22 22:04:00,
2014-08-22 18:05:00,81.2,74.8,29.90,NW,318,0.0,2.0,81,0.00,,---,0.02,0.00,VWS V14.01,2014-08-22 22:05:00,
2014-08-22 18:06:00,81.3,74.9,29.90,NW,318,0.0,1.0,81,0.00,,---,0.02,0.00,VWS V14.01,2014-08-22 22:06:00,
2014-08-22 18:07:00,81.3,74.9,29.90,NW,318,1.0,1.0,81,0.00,,---,0.02,0.00,VWS V14.01,2014-08-22 22:07:00,
2014-08-22 18:08:00,81.3,74.9,29.90,NW,318,1.0,1.0,81,0.00,,---,0.02,0.00,VWS V14.01,2014-08-22 22:08:00,
2014-08-22 18:09:00,81.3,74.5,29.91,NW,318,0.0,1.0,80,0.00,,---,0.02,0.00,VWS V14.01,2014-08-22 22:09:00,
2014-08-22 18:10:00,81.4,75.0,29.90,NW,318,0.0,5.0,81,0.00,,---,0.02,0.00,VWS V14.01,2014-08-22 22:10:00,
2014-08-22 18:11:00,81.5,74.7,29.90,NW,318,1.0,6.0,80,0.00,,---,0.02,0.00,VWS V14.01,2014-08-22 22:11:00,
2014-08-22 18:12:00,81.6,74.8,29.90,NW,318,0.0,2.0,80,0.00,,---,0.02,0.00,VWS V14.01,2014-08-22 22:12:00,
2014-08-22 18:13:00,81.7,74.9,29.90,NW,318,0.0,1.0,80,0.00,,---,0.02,0.00,VWS V14.01,2014-08-22 22:13:00,
2014-08-22 18:14:00,81.2,74.8,29.90,NW,318,1.0,1.0,81,0.00,,---,0.02,0.00,VWS V14.01,2014-08-22 22:14:00,
2014-08-22 18:15:00,81.8,75.0,29.90,NW,318,0.0,1.0,80,0.00,,---,0.02,0.00,VWS V14.01,2014-08-22 22:15:00,
2014-08-22 18:16:00,82.0,75.2,29.90,NW,318,0.0,1.0,80,0.00,,---,0.02,0.00,VWS V14.01,2014-08-22 22:16:00,
2014-08-22 18:17:00,82.0,75.6,29.90,NW,318,2.0,2.0,81,0.00,,---,0.02,0.00,VWS V14.01,2014-08-22 22:17:00,
2014-08-22 18:18:00,82.1,74.9,29.90,NW,318,0.0,7.0,79,0.00,,---,0.02,0.00,VWS V14.01,2014-08-22 22:18:00,
2014-08-22 18:19:00,82.1,74.9,29.90,NW,318,0.0,1.0,79,0.00,,---,0.02,0.00,VWS V14.01,2014-08-22 22:19:00,
2014-08-22 18:20:00,82.2,75.4,29.90,NW,318,0.0,1.0,80,0.00,,---,0.02,0.00,VWS V14.01,2014-08-22 22:20:00,
2014-08-22 18:21:00,82.2,75.0,29.90,NW,318,0.0,0.0,79,0.00,,---,0.02,0.00,VWS V14.01,2014-08-22 22:21:00,
2014-08-22 18:22:00,82.3,75.1,29.90,NW,318,0.0,0.0,79,0.00,,---,0.02,0.00,VWS V14.01,2014-08-22 22:22:00,
2014-08-22 18:23:00,82.3,75.1,29.90,NW,318,2.0,2.0,79,0.00,,---,0.02,0.00,VWS V14.01,2014-08-22 22:23:00,
2014-08-22 18:24:00,81.5,75.1,29.90,NW,318,5.0,5.0,81,0.00,,---,0.02,0.00,VWS V14.01,2014-08-22 22:24:00,
2014-08-22 18:25:00,82.3,75.1,29.90,NW,318,0.0,1.0,79,0.00,,---,0.02,0.00,VWS V14.01,2014-08-22 22:25:00,
2014-08-22 18:26:00,82.2,75.0,29.90,NW,318,1.0,1.0,79,0.00,,---,0.02,0.00,VWS V14.01,2014-08-22 22:26:00,
2014-08-22 18:27:00,82.2,75.0,29.90,NW,318,0.0,1.0,79,0.00,,---,0.02,0.00,VWS V14.01,2014-08-22 22:27:00,
2014-08-22 18:28:00,82.2,75.0,29.90,NW,318,0.0,1.0,79,0.00,,---,0.02,0.00,VWS V14.01,2014-08-22 22:28:00,
2014-08-22 18:29:00,82.3,75.1,29.90,NW,318,1.0,1.0,79,0.00,,---,0.02,0.00,VWS V14.01,2014-08-22 22:29:00,
2014-08-22 18:30:00,82.3,75.1,29.90,NW,319,1.0,2.0,79,0.00,,---,0.02,0.00,VWS V14.01,2014-08-22 22:30:00,
2014-08-22 18:31:00,82.3,74.8,29.90,NW,318,2.0,2.0,78,0.00,,---,0.02,0.00,VWS V14.01,2014-08-22 22:31:00,
2014-08-22 18:32:00,82.3,74.8,29.90,NW,318,0.0,1.0,78,0.00,,---,0.02,0.00,VWS V14.01,2014-08-22 22:32:00,
2014-08-22 18:33:00,82.3,75.1,29.90,NW,318,1.0,2.0,79,0.00,,---,0.02,0.00,VWS V14.01,2014-08-22 22:33:00,
2014-08-22 18:34:00,82.3,75.1,29.90,NW,318,0.0,1.0,79,0.00,,---,0.02,0.00,VWS V14.01,2014-08-22 22:34:00,
2014-08-22 18:35:00,82.3,75.1,29.90,NW,318,0.0,1.0,79,0.00,,---,0.02,0.00,VWS V14.01,2014-08-22 22:35:00,
2014-08-22 18:36:00,82.3,75.1,29.90,NW,318,0.0,0.0,79,0.00,,---,0.02,0.00,VWS V14.01,2014-08-22 22:36:00,
2014-08-22 18:37:00,82.3,74.8,29.90,NW,318,0.0,1.0,78,0.00,,---,0.02,0.00,VWS V14.01,2014-08-22 22:37:00,
2014-08-22 18:38:00,82.3,75.1,29.90,NW,318,0.0,1.0,79,0.00,,---,0.02,0.00,VWS V14.01,2014-08-22 22:38:00,
2014-08-22 18:39:00,82.3,75.1,29.90,NW,318,1.0,3.0,79,0.00,,---,0.02,0.00,VWS V14.01,2014-08-22 22:39:00,
2014-08-22 18:40:00,82.2,75.0,29.90,NW,319,0.0,1.0,79,0.00,,---,0.02,0.00,VWS V14.01,2014-08-22 22:40:00,
2014-08-22 18:41:00,82.3,75.1,29.90,NW,318,0.0,1.0,79,0.00,,---,0.02,0.00,VWS V14.01,2014-08-22 22:41:00,
2014-08-22 18:42:00,82.3,75.1,29.90,NW,318,0.0,1.0,79,0.00,,---,0.02,0.00,VWS V14.01,2014-08-22 22:42:00,
2014-08-22 18:43:00,82.3,75.1,29.90,NW,318,0.0,2.0,79,0.00,,---,0.02,0.00,VWS V14.01,2014-08-22 22:43:00,
2014-08-22 18:44:00,82.3,75.1,29.90,NW,318,2.0,2.0,79,0.00,,---,0.02,0.00,VWS V14.01,2014-08-22 22:44:00,
2014-08-22 18:45:00,82.3,75.1,29.90,NW,318,3.0,3.0,79,0.00,,---,0.02,0.00,VWS V14.01,2014-08-22 22:45:00,
2014-08-22 18:46:00,82.2,75.0,29.90,NW,318,0.0,1.0,79,0.00,,---,0.02,0.00,VWS V14.01,2014-08-22 22:46:00,
2014-08-22 18:47:00,82.1,74.9,29.90,NW,318,0.0,1.0,79,0.00,,---,0.02,0.00,VWS V14.01,2014-08-22 22:47:00,
2014-08-22 18:48:00,82.1,75.3,29.90,NW,318,0.0,1.0,80,0.00,,---,0.02,0.00,VWS V14.01,2014-08-22 22:48:00,
2014-08-22 18:49:00,82.3,75.1,29.90,NW,318,0.0,0.0,79,0.00,,---,0.02,0.00,VWS V14.01,2014-08-22 22:49:00,
2014-08-22 18:50:00,82.0,74.8,29.90,NW,318,1.0,1.0,79,0.00,,---,0.02,0.00,VWS V14.01,2014-08-22 22:50:00,
2014-08-22 18:51:00,82.0,75.2,29.90,NW,318,2.0,2.0,80,0.00,,---,0.02,0.00,VWS V14.01,2014-08-22 22:51:00,
2014-08-22 18:52:00,82.0,74.8,29.90,NW,318,1.0,2.0,79,0.00,,---,0.02,0.00,VWS V14.01,2014-08-22 22:52:00,
2014-08-22 18:53:00,82.0,74.8,29.90,NW,318,0.0,1.0,79,0.00,,---,0.02,0.00,VWS V14.01,2014-08-22 22:53:00,
2014-08-22 18:54:00,81.9,75.1,29.90,NW,318,0.0,2.0,80,0.00,,---,0.02,0.00,VWS V14.01,2014-08-22 22:54:00,
2014-08-22 18:55:00,82.0,74.8,29.90,NW,318,1.0,2.0,79,0.00,,---,0.02,0.00,VWS V14.01,2014-08-22 22:55:00,
2014-08-22 18:56:00,81.9,74.8,29.90,NW,318,0.0,2.0,79,0.00,,---,0.02,0.00,VWS V14.01,2014-08-22 22:56:00,
2014-08-22 18:57:00,82.3,75.1,29.90,NW,318,1.0,1.0,79,0.00,,---,0.02,0.00,VWS V14.01,2014-08-22 22:57:00,
2014-08-22 18:58:00,81.8,74.7,29.90,NW,318,1.0,1.0,79,0.00,,---,0.02,0.00,VWS V14.01,2014-08-22 22:58:00,
2014-08-22 18:59:00,82.2,75.0,29.90,NW,318,0.0,4.0,79,0.00,,---,0.02,0.00,VWS V14.01,2014-08-22 22:59:00,
2014-08-22 19:00:00,81.8,75.0,29.90,NW,318,0.0,1.0,80,0.00,,---,0.02,0.00,VWS V14.01,2014-08-22 23:00:00,
2014-08-22 19:01:00,81.8,74.7,29.90,NW,318,0.0,0.0,79,0.00,,---,0.02,0.00,VWS V14.01,2014-08-22 23:01:00,
2014-08-22 19:02:00,81.8,74.7,29.90,NW,318,0.0,0.0,79,0.00,,---,0.02,0.00,VWS V14.01,2014-08-22 23:02:00,
2014-08-22 19:03:00,81.8,75.0,29.90,NW,318,0.0,0.0,80,0.00,,---,0.02,0.00,VWS V14.01,2014-08-22 23:03:00,
2014-08-22 19:04:00,81.8,75.0,29.90,NW,318,0.0,0.0,80,0.00,,---,0.02,0.00,VWS V14.01,2014-08-22 23:04:00,
2014-08-22 19:05:00,81.8,75.0,29.90,NW,318,0.0,2.0,80,0.00,,---,0.02,0.00,VWS V14.01,2014-08-22 23:05:00,
2014-08-22 19:06:00,81.8,75.0,29.90,NW,318,0.0,1.0,80,0.00,,---,0.02,0.00,VWS V14.01,2014-08-22 23:06:00,
2014-08-22 19:07:00,81.8,75.0,29.90,NW,318,0.0,1.0,80,0.00,,---,0.02,0.00,VWS V14.01,2014-08-22 23:07:00,
2014-08-22 19:08:00,82.0,74.8,29.90,NW,318,2.0,2.0,79,0.00,,---,0.02,0.00,VWS V14.01,2014-08-22 23:08:00,
2014-08-22 19:09:00,81.8,75.0,29.90,NW,318,0.0,0.0,80,0.00,,---,0.02,0.00,VWS V14.01,2014-08-22 23:09:00,
2014-08-22 19:10:00,81.8,75.0,29.90,NW,318,0.0,0.0,80,0.00,,---,0.02,0.00,VWS V14.01,2014-08-22 23:10:00,
2014-08-22 19:11:00,81.8,75.0,29.90,NW,318,0.0,1.0,80,0.00,,---,0.02,0.00,VWS V14.01,2014-08-22 23:11:00,
2014-08-22 19:12:00,81.8,75.0,29.90,NW,318,0.0,0.0,80,0.00,,---,0.02,0.00,VWS V14.01,2014-08-22 23:12:00,
2014-08-22 19:13:00,81.7,74.9,29.90,NW,318,0.0,1.0,80,0.00,,---,0.02,0.00,VWS V14.01,2014-08-22 23:13:00,
2014-08-22 19:14:00,81.7,74.9,29.90,NW,318,0.0,2.0,80,0.00,,---,0.02,0.00,VWS V14.01,2014-08-22 23:14:00,
2014-08-22 19:15:00,81.7,74.9,29.90,NW,318,1.0,4.0,80,0.00,,---,0.02,0.00,VWS V14.01,2014-08-22 23:15:00,
2014-08-22 19:16:00,81.6,74.8,29.90,NW,318,0.0,1.0,80,0.00,,---,0.02,0.00,VWS V14.01,2014-08-22 23:16:00,
2014-08-22 19:17:00,81.6,74.8,29.90,NW,318,0.0,0.0,80,0.00,,---,0.02,0.00,VWS V14.01,2014-08-22 23:17:00,
2014-08-22 19:22:00,81.8,75.0,29.90,NW,318,0.0,0.0,80,0.00,,---,0.02,0.00,VWS V14.01,2014-08-22 23:22:00,
2014-08-22 19:23:00,81.8,75.0,29.90,NW,318,0.0,1.0,80,0.00,,---,0.02,0.00,VWS V14.01,2014-08-22 23:23:00,
2014-08-22 19:24:00,81.8,75.0,29.90,NW,318,0.0,1.0,80,0.00,,---,0.02,0.00,VWS V14.01,2014-08-22 23:24:00,
2014-08-22 19:27:00,81.7,74.9,29.90,NW,318,0.0,2.0,80,0.00,,---,0.02,0.00,VWS V14.01,2014-08-22 23:27:00,
2014-08-22 19:29:00,81.6,74.8,29.90,NW,318,0.0,1.0,80,0.00,,---,0.02,0.00,VWS V14.01,2014-08-22 23:29:00,